Time,TemperatureF,DewpointF,PressureIn,WindDirection,WindDirectionDegrees,WindSpeedMPH,WindSpeedGustMPH,Humidity,HourlyPrecipIn,Conditions,Clouds,dailyrainin,SoftwareType,DateUTC
2013-04-05 00:00:00,54.2,48.8,29.87,ESE,120,3.0,5.0,82,0.00,,,0.18,Wunderground v.1.15,2013-04-05 07:00:00,
2013-04-05 00:04:00,54.2,48.8,29.87,SE,134,3.0,5.0,82,0.00,,,0.00,Wunderground v.1.15,2013-04-05 07:04:00,
2013-04-05 00:05:00,54.1,48.4,29.86,SSW,200,2.0,5.0,81,0.00,,,0.00,Wunderground v.1.15,2013-04-05 07:05:00,
2013-04-05 00:06:00,54.1,48.4,29.86,SSW,203,2.0,5.0,81,0.00,,,0.00,Wunderground v.1.15,2013-04-05 07:06:00,
2013-04-05 00:11:00,54.2,48.5,29.86,WSW,249,2.0,5.0,81,0.00,,,0.00,Wunderground v.1.15,2013-04-05 07:11:00,
2013-04-05 00:12:00,54.1,48.4,29.87,West,270,2.0,2.0,81,0.00,,,0.00,Wunderground v.1.15,2013-04-05 07:12:00,
2013-04-05 00:13:00,54.2,48.5,29.86,West,259,2.0,2.0,81,0.00,,,0.00,Wunderground v.1.15,2013-04-05 07:13:00,
2013-04-05 00:17:00,54.2,48.2,29.86,SE,136,3.0,7.0,80,0.00,,,0.00,Wunderground v.1.15,2013-04-05 07:17:00,
2013-04-05 00:19:00,54.2,48.2,29.86,WSW,239,3.0,7.0,80,0.00,,,0.00,Wunderground v.1.15,2013-04-05 07:19:00,
2013-04-05 00:21:00,54.3,48.3,29.86,West,259,4.0,7.0,80,0.00,,,0.00,Wunderground v.1.15,2013-04-05 07:21:00,
2013-04-05 00:23:00,54.3,48.3,29.86,SW,228,3.0,4.0,80,0.00,,,0.00,Wunderground v.1.15,2013-04-05 07:23:00,
2013-04-05 00:24:00,54.3,47.9,29.86,SW,214,3.0,4.0,79,0.00,,,0.00,Wunderground v.1.15,2013-04-05 07:24:00,
2013-04-05 00:25:00,54.3,47.9,29.86,East,99,4.0,4.0,79,0.00,,,0.00,Wunderground v.1.15,2013-04-05 07:25:00,
2013-04-05 00:28:00,54.4,48.0,29.86,WSW,255,4.0,5.0,79,0.00,,,0.00,Wunderground v.1.15,2013-04-05 07:28:00,
2013-04-05 00:30:00,54.4,48.0,29.86,WSW,255,4.0,5.0,79,0.00,,,0.00,Wunderground v.1.15,2013-04-05 07:30:00,
2013-04-05 00:33:00,54.5,48.1,29.86,SSE,165,4.0,4.0,79,0.00,,,0.00,Wunderground v.1.15,2013-04-05 07:33:00,
2013-04-05 00:35:00,54.4,48.0,29.86,WSW,253,4.0,6.0,79,0.00,,,0.00,Wunderground v.1.15,2013-04-05 07:35:00,
2013-04-05 00:36:00,54.4,48.0,29.86,WSW,253,4.0,6.0,79,0.00,,,0.00,Wunderground v.1.15,2013-04-05 07:36:00,
2013-04-05 00:40:00,54.4,48.0,29.86,WSW,245,4.0,11.0,79,0.00,,,0.00,Wunderground v.1.15,2013-04-05 07:40:00,
2013-04-05 00:41:00,54.4,47.7,29.86,WSW,240,4.0,11.0,78,0.00,,,0.00,Wunderground v.1.15,2013-04-05 07:41:00,
2013-04-05 00:43:00,54.4,48.0,29.86,SSE,156,4.0,6.0,79,0.00,,,0.00,Wunderground v.1.15,2013-04-05 07:43:00,
2013-04-05 00:44:00,54.4,48.0,29.87,SW,226,4.0,6.0,79,0.00,,,0.00,Wunderground v.1.15,2013-04-05 07:44:00,
2013-04-05 00:50:00,54.4,48.0,29.87,West,271,5.0,6.0,79,0.00,,,0.00,Wunderground v.1.15,2013-04-05 07:50:00,
2013-04-05 00:53:00,54.3,47.9,29.87,SSW,194,4.0,4.0,79,0.00,,,0.00,Wunderground v.1.15,2013-04-05 07:53:00,
2013-04-05 00:56:00,54.2,47.8,29.87,NNE,13,3.0,5.0,79,0.00,,,0.00,Wunderground v.1.15,2013-04-05 07:56:00,
2013-04-05 00:57:00,54.2,47.8,29.87,West,263,3.0,7.0,79,0.00,,,0.00,Wunderground v.1.15,2013-04-05 07:57:00,
2013-04-05 00:58:00,54.2,47.8,29.87,SW,224,3.0,7.0,79,0.00,,,0.00,Wunderground v.1.15,2013-04-05 07:58:00,
2013-04-05 00:59:00,54.2,48.2,29.87,NW,304,3.0,7.0,80,0.00,,,0.00,Wunderground v.1.15,2013-04-05 07:59:00,
2013-04-05 01:02:00,54.2,48.5,29.87,West,260,3.0,4.0,81,0.00,,,0.00,Wunderground v.1.15,2013-04-05 08:02:00,
2013-04-05 01:03:00,54.1,48.4,29.87,WNW,284,4.0,4.0,81,0.00,,,0.00,Wunderground v.1.15,2013-04-05 08:03:00,
2013-04-05 01:07:00,54.0,48.3,29.87,West,264,4.0,5.0,81,0.00,,,0.00,Wunderground v.1.15,2013-04-05 08:07:00,
2013-04-05 01:09:00,53.9,48.2,29.87,South,183,4.0,5.0,81,0.00,,,0.00,Wunderground v.1.15,2013-04-05 08:09:00,
2013-04-05 01:11:00,53.9,48.5,29.87,SSW,194,3.0,5.0,82,0.00,,,0.00,Wunderground v.1.15,2013-04-05 08:11:00,
2013-04-05 01:12:00,53.9,48.5,29.87,SSW,210,3.0,4.0,82,0.00,,,0.00,Wunderground v.1.15,2013-04-05 08:12:00,
2013-04-05 01:16:00,53.9,48.5,29.87,West,276,4.0,6.0,82,0.00,,,0.00,Wunderground v.1.15,2013-04-05 08:16:00,
2013-04-05 01:17:00,53.8,48.4,29.87,ESE,122,4.0,6.0,82,0.00,,,0.00,Wunderground v.1.15,2013-04-05 08:17:00,
2013-04-05 01:18:00,53.8,48.4,29.87,West,264,4.0,6.0,82,0.00,,,0.00,Wunderground v.1.15,2013-04-05 08:18:00,
2013-04-05 01:23:00,53.8,48.4,29.87,WSW,248,3.0,4.0,82,0.00,,,0.00,Wunderground v.1.15,2013-04-05 08:23:00,
2013-04-05 01:24:00,53.8,48.4,29.87,WSW,255,3.0,9.0,82,0.00,,,0.00,Wunderground v.1.15,2013-04-05 08:24:00,
2013-04-05 01:29:00,53.9,48.5,29.87,WSW,252,4.0,9.0,82,0.00,,,0.00,Wunderground v.1.15,2013-04-05 08:29:00,
2013-04-05 01:30:00,53.9,48.5,29.87,WSW,252,4.0,9.0,82,0.00,,,0.00,Wunderground v.1.15,2013-04-05 08:30:00,
2013-04-05 01:35:00,53.9,48.2,29.88,WSW,243,4.0,4.0,81,0.00,,,0.00,Wunderground v.1.15,2013-04-05 08:35:00,
2013-04-05 01:36:00,53.9,48.2,29.87,WSW,253,4.0,4.0,81,0.00,,,0.00,Wunderground v.1.15,2013-04-05 08:36:00,
2013-04-05 01:38:00,54.0,48.3,29.87,SW,229,4.0,4.0,81,0.00,,,0.00,Wunderground v.1.15,2013-04-05 08:38:00,
2013-04-05 01:39:00,54.0,48.3,29.87,SSW,197,4.0,4.0,81,0.00,,,0.00,Wunderground v.1.15,2013-04-05 08:39:00,
2013-04-05 01:42:00,54.0,48.3,29.87,WSW,245,4.0,5.0,81,0.00,,,0.00,Wunderground v.1.15,2013-04-05 08:42:00,
2013-04-05 01:45:00,54.1,48.4,29.87,East,89,4.0,5.0,81,0.00,,,0.00,Wunderground v.1.15,2013-04-05 08:45:00,
2013-04-05 01:47:00,54.1,48.4,29.87,West,275,4.0,6.0,81,0.00,,,0.00,Wunderground v.1.15,2013-04-05 08:47:00,
2013-04-05 01:48:00,54.1,48.4,29.87,West,259,4.0,6.0,81,0.00,,,0.00,Wunderground v.1.15,2013-04-05 08:48:00,
2013-04-05 01:49:00,54.1,48.4,29.87,WNW,293,5.0,6.0,81,0.00,,,0.00,Wunderground v.1.15,2013-04-05 08:49:00,
2013-04-05 01:54:00,54.1,48.4,29.87,West,270,5.0,5.0,81,0.00,,,0.00,Wunderground v.1.15,2013-04-05 08:54:00,
2013-04-05 01:56:00,54.1,48.4,29.87,WSW,248,5.0,13.0,81,0.00,,,0.00,Wunderground v.1.15,2013-04-05 08:56:00,
2013-04-05 01:57:00,54.1,48.4,29.87,WSW,245,5.0,13.0,81,0.00,,,0.00,Wunderground v.1.15,2013-04-05 08:57:00,
2013-04-05 02:02:00,54.0,48.6,29.88,SW,226,4.0,13.0,82,0.00,,,0.00,Wunderground v.1.15,2013-04-05 09:02:00,
2013-04-05 02:04:00,54.0,48.6,29.87,WSW,243,5.0,5.0,82,0.00,,,0.00,Wunderground v.1.15,2013-04-05 09:04:00,
2013-04-05 02:05:00,53.9,48.5,29.87,SW,231,4.0,5.0,82,0.00,,,0.00,Wunderground v.1.15,2013-04-05 09:05:00,
2013-04-05 02:06:00,53.9,48.5,29.87,SSE,148,4.0,8.0,82,0.00,,,0.00,Wunderground v.1.15,2013-04-05 09:06:00,
2013-04-05 02:09:00,53.9,48.5,29.88,WSW,256,4.0,8.0,82,0.00,,,0.00,Wunderground v.1.15,2013-04-05 09:09:00,
2013-04-05 02:12:00,53.8,48.8,29.87,SW,224,4.0,4.0,83,0.00,,,0.00,Wunderground v.1.15,2013-04-05 09:12:00,
2013-04-05 02:13:00,53.8,48.8,29.87,WSW,253,4.0,6.0,83,0.00,,,0.00,Wunderground v.1.15,2013-04-05 09:13:00,
2013-04-05 02:16:00,53.7,49.0,29.87,WSW,239,4.0,6.0,84,0.00,,,0.00,Wunderground v.1.15,2013-04-05 09:16:00,
2013-04-05 02:18:00,53.6,48.6,29.87,SW,232,4.0,6.0,83,0.00,,,0.00,Wunderground v.1.15,2013-04-05 09:18:00,
2013-04-05 02:21:00,53.6,48.9,29.87,WSW,246,4.0,6.0,84,0.00,,,0.00,Wunderground v.1.15,2013-04-05 09:21:00,
2013-04-05 02:22:00,53.7,49.0,29.87,SSW,203,4.0,4.0,84,0.00,,,0.00,Wunderground v.1.15,2013-04-05 09:22:00,
2013-04-05 02:25:00,53.6,48.9,29.87,SE,135,4.0,4.0,84,0.00,,,0.00,Wunderground v.1.15,2013-04-05 09:25:00,
2013-04-05 02:27:00,53.6,48.9,29.87,West,259,4.0,5.0,84,0.00,,,0.00,Wunderground v.1.15,2013-04-05 09:27:00,
2013-04-05 02:29:00,53.7,48.7,29.87,WSW,245,4.0,5.0,83,0.00,,,0.00,Wunderground v.1.15,2013-04-05 09:29:00,
2013-04-05 02:33:00,53.7,48.7,29.87,South,184,4.0,5.0,83,0.00,,,0.00,Wunderground v.1.15,2013-04-05 09:33:00,
2013-04-05 02:34:00,53.7,48.7,29.87,SSW,208,4.0,7.0,83,0.00,,,0.00,Wunderground v.1.15,2013-04-05 09:34:00,
2013-04-05 02:37:00,53.8,48.8,29.87,SW,236,5.0,13.0,83,0.00,,,0.00,Wunderground v.1.15,2013-04-05 09:37:00,
2013-04-05 02:42:00,53.8,48.8,29.87,West,260,5.0,9.0,83,0.00,,,0.00,Wunderground v.1.15,2013-04-05 09:42:00,
2013-04-05 02:43:00,53.8,48.8,29.87,West,266,5.0,9.0,83,0.00,,,0.00,Wunderground v.1.15,2013-04-05 09:43:00,
2013-04-05 02:44:00,53.9,48.9,29.87,WSW,257,5.0,9.0,83,0.00,,,0.00,Wunderground v.1.15,2013-04-05 09:44:00,
2013-04-05 02:45:00,53.9,48.9,29.87,WNW,290,5.0,9.0,83,0.00,,,0.00,Wunderground v.1.15,2013-04-05 09:45:00,
2013-04-05 02:50:00,53.9,48.5,29.87,SW,233,4.0,9.0,82,0.00,,,0.00,Wunderground v.1.15,2013-04-05 09:50:00,
2013-04-05 02:53:00,54.0,48.6,29.87,West,271,5.0,5.0,82,0.00,,,0.00,Wunderground v.1.15,2013-04-05 09:53:00,
2013-04-05 02:54:00,54.0,48.6,29.87,South,180,5.0,5.0,82,0.00,,,0.00,Wunderground v.1.15,2013-04-05 09:54:00,
2013-04-05 02:56:00,54.1,48.7,29.87,SW,235,5.0,5.0,82,0.00,,,0.00,Wunderground v.1.15,2013-04-05 09:56:00,
2013-04-05 02:58:00,54.1,48.7,29.88,West,266,5.0,5.0,82,0.00,,,0.00,Wunderground v.1.15,2013-04-05 09:58:00,
2013-04-05 03:00:00,54.1,48.7,29.88,West,269,5.0,13.0,82,0.00,,,0.00,Wunderground v.1.15,2013-04-05 10:00:00,
2013-04-05 03:01:00,54.1,48.7,29.88,West,274,5.0,13.0,82,0.00,,,0.00,Wunderground v.1.15,2013-04-05 10:01:00,
2013-04-05 03:04:00,54.1,48.7,29.88,SW,226,5.0,8.0,82,0.00,,,0.00,Wunderground v.1.15,2013-04-05 10:04:00,
2013-04-05 03:07:00,54.1,48.7,29.88,West,269,5.0,8.0,82,0.00,,,0.00,Wunderground v.1.15,2013-04-05 10:07:00,
2013-04-05 03:09:00,54.1,48.7,29.88,West,269,5.0,12.0,82,0.00,,,0.00,Wunderground v.1.15,2013-04-05 10:09:00,
2013-04-05 03:10:00,54.2,48.8,29.88,WSW,252,6.0,12.0,82,0.00,,,0.00,Wunderground v.1.15,2013-04-05 10:10:00,
2013-04-05 03:12:00,54.2,48.8,29.88,West,281,5.0,5.0,82,0.00,,,0.00,Wunderground v.1.15,2013-04-05 10:12:00,
2013-04-05 03:17:00,54.2,48.8,29.88,NW,306,5.0,9.0,82,0.00,,,0.00,Wunderground v.1.15,2013-04-05 10:17:00,
2013-04-05 03:18:00,54.3,48.9,29.88,WSW,248,6.0,11.0,82,0.00,,,0.00,Wunderground v.1.15,2013-04-05 10:18:00,
2013-04-05 03:19:00,54.3,48.9,29.88,WSW,248,6.0,11.0,82,0.00,,,0.00,Wunderground v.1.15,2013-04-05 10:19:00,
2013-04-05 03:22:00,54.3,48.9,29.88,WSW,250,5.0,6.0,82,0.00,,,0.00,Wunderground v.1.15,2013-04-05 10:22:00,
2013-04-05 03:24:00,54.3,48.9,29.89,WSW,251,5.0,7.0,82,0.00,,,0.00,Wunderground v.1.15,2013-04-05 10:24:00,
2013-04-05 03:25:00,54.3,48.9,29.89,WSW,248,5.0,10.0,82,0.00,,,0.00,Wunderground v.1.15,2013-04-05 10:25:00,
2013-04-05 03:27:00,54.3,48.9,29.88,WSW,255,5.0,10.0,82,0.00,,,0.00,Wunderground v.1.15,2013-04-05 10:27:00,
2013-04-05 03:30:00,54.3,48.9,29.88,West,259,5.0,10.0,82,0.00,,,0.00,Wunderground v.1.15,2013-04-05 10:30:00,
2013-04-05 03:31:00,54.3,48.9,29.89,West,279,5.0,10.0,82,0.00,,,0.00,Wunderground v.1.15,2013-04-05 10:31:00,
2013-04-05 03:32:00,54.2,48.8,29.88,WSW,252,5.0,5.0,82,0.00,,,0.00,Wunderground v.1.15,2013-04-05 10:32:00,
2013-04-05 03:35:00,54.2,48.8,29.89,SSE,153,5.0,13.0,82,0.00,,,0.00,Wunderground v.1.15,2013-04-05 10:35:00,
2013-04-05 03:39:00,54.1,49.1,29.89,West,259,6.0,13.0,83,0.00,,,0.00,Wunderground v.1.15,2013-04-05 10:39:00,
2013-04-05 03:41:00,54.0,49.0,29.89,WSW,242,6.0,13.0,83,0.00,,,0.00,Wunderground v.1.15,2013-04-05 10:41:00,
2013-04-05 03:42:00,54.0,49.0,29.89,WSW,247,6.0,6.0,83,0.00,,,0.00,Wunderground v.1.15,2013-04-05 10:42:00,
2013-04-05 03:45:00,53.9,49.2,29.89,SE,138,6.0,7.0,84,0.00,,,0.00,Wunderground v.1.15,2013-04-05 10:45:00,
2013-04-05 03:49:00,53.7,49.0,29.89,SSW,207,5.0,8.0,84,0.00,,,0.00,Wunderground v.1.15,2013-04-05 10:49:00,
2013-04-05 03:51:00,53.5,49.1,29.89,West,269,4.0,11.0,85,0.00,,,0.01,Wunderground v.1.15,2013-04-05 10:51:00,
2013-04-05 03:53:00,53.4,49.3,29.89,North,11,4.0,4.0,86,0.00,,,0.01,Wunderground v.1.15,2013-04-05 10:53:00,
2013-04-05 03:54:00,53.3,49.2,29.89,SE,146,4.0,4.0,86,0.00,,,0.01,Wunderground v.1.15,2013-04-05 10:54:00,
2013-04-05 03:59:00,53.1,49.0,29.89,WSW,256,4.0,4.0,86,0.00,,,0.01,Wunderground v.1.15,2013-04-05 10:59:00,
2013-04-05 04:00:00,53.1,49.3,29.89,WSW,245,4.0,4.0,87,0.00,,,0.01,Wunderground v.1.15,2013-04-05 11:00:00,
2013-04-05 04:02:00,53.0,48.9,29.89,WSW,253,4.0,4.0,86,0.00,,,0.01,Wunderground v.1.15,2013-04-05 11:02:00,
2013-04-05 04:06:00,53.0,48.9,29.90,SW,231,4.0,7.0,86,0.00,,,0.01,Wunderground v.1.15,2013-04-05 11:06:00,
2013-04-05 04:10:00,53.1,49.0,29.90,WSW,248,5.0,7.0,86,0.00,,,0.01,Wunderground v.1.15,2013-04-05 11:10:00,
2013-04-05 04:11:00,53.2,49.1,29.90,West,276,5.0,7.0,86,0.00,,,0.01,Wunderground v.1.15,2013-04-05 11:11:00,
2013-04-05 04:13:00,53.2,49.1,29.90,WSW,240,5.0,9.0,86,0.00,,,0.01,Wunderground v.1.15,2013-04-05 11:13:00,
2013-04-05 04:16:00,53.3,48.9,29.90,WSW,240,5.0,10.0,85,0.00,,,0.01,Wunderground v.1.15,2013-04-05 11:16:00,
2013-04-05 04:17:00,53.3,48.9,29.90,WSW,252,5.0,10.0,85,0.00,,,0.01,Wunderground v.1.15,2013-04-05 11:17:00,
2013-04-05 04:18:00,53.3,48.9,29.90,WSW,238,5.0,10.0,85,0.00,,,0.01,Wunderground v.1.15,2013-04-05 11:18:00,
2013-04-05 04:19:00,53.3,48.9,29.90,SSW,198,5.0,10.0,85,0.00,,,0.01,Wunderground v.1.15,2013-04-05 11:19:00,
2013-04-05 04:23:00,53.3,48.9,29.90,SSE,156,4.0,4.0,85,0.00,,,0.01,Wunderground v.1.15,2013-04-05 11:23:00,
2013-04-05 04:24:00,53.3,48.9,29.90,ESE,106,4.0,4.0,85,0.00,,,0.01,Wunderground v.1.15,2013-04-05 11:24:00,
2013-04-05 04:25:00,53.3,48.9,29.90,West,275,3.0,4.0,85,0.00,,,0.01,Wunderground v.1.15,2013-04-05 11:25:00,
2013-04-05 04:29:00,53.3,48.9,29.90,West,281,3.0,8.0,85,0.00,,,0.01,Wunderground v.1.15,2013-04-05 11:29:00,
2013-04-05 04:30:00,53.4,49.0,29.90,SW,224,3.0,8.0,85,0.00,,,0.01,Wunderground v.1.15,2013-04-05 11:30:00,
2013-04-05 04:35:00,53.4,48.7,29.90,West,263,4.0,8.0,84,0.00,,,0.01,Wunderground v.1.15,2013-04-05 11:35:00,
2013-04-05 04:36:00,53.4,48.7,29.90,South,185,4.0,8.0,84,0.00,,,0.01,Wunderground v.1.15,2013-04-05 11:36:00,
2013-04-05 04:37:00,53.4,48.7,29.90,West,280,4.0,8.0,84,0.00,,,0.01,Wunderground v.1.15,2013-04-05 11:37:00,
2013-04-05 04:40:00,53.5,48.8,29.91,SW,221,5.0,8.0,84,0.00,,,0.01,Wunderground v.1.15,2013-04-05 11:40:00,
2013-04-05 04:43:00,53.5,48.8,29.91,West,259,5.0,12.0,84,0.00,,,0.01,Wunderground v.1.15,2013-04-05 11:43:00,
2013-04-05 04:44:00,53.5,48.8,29.91,SSE,158,5.0,12.0,84,0.00,,,0.01,Wunderground v.1.15,2013-04-05 11:44:00,
2013-04-05 04:46:00,53.5,48.8,29.91,SSE,152,5.0,12.0,84,0.00,,,0.01,Wunderground v.1.15,2013-04-05 11:46:00,
2013-04-05 04:49:00,53.5,48.8,29.91,WSW,242,5.0,12.0,84,0.00,,,0.01,Wunderground v.1.15,2013-04-05 11:49:00,
2013-04-05 04:51:00,53.5,48.8,29.91,SW,217,6.0,12.0,84,0.00,,,0.01,Wunderground v.1.15,2013-04-05 11:51:00,
2013-04-05 04:53:00,53.5,48.8,29.91,West,266,5.0,5.0,84,0.00,,,0.01,Wunderground v.1.15,2013-04-05 11:53:00,
2013-04-05 04:55:00,53.5,48.8,29.91,WSW,248,5.0,5.0,84,0.00,,,0.01,Wunderground v.1.15,2013-04-05 11:55:00,
2013-04-05 04:56:00,53.5,48.8,29.91,ESE,113,5.0,5.0,84,0.00,,,0.01,Wunderground v.1.15,2013-04-05 11:56:00,
2013-04-05 04:59:00,53.4,48.7,29.91,WSW,257,4.0,6.0,84,0.00,,,0.01,Wunderground v.1.15,2013-04-05 11:59:00,
2013-04-05 05:01:00,53.4,48.7,29.91,West,275,3.0,6.0,84,0.00,,,0.01,Wunderground v.1.15,2013-04-05 12:01:00,
2013-04-05 05:02:00,53.4,48.7,29.91,WSW,253,4.0,4.0,84,0.00,,,0.01,Wunderground v.1.15,2013-04-05 12:02:00,
2013-04-05 05:06:00,53.5,48.8,29.91,WNW,283,4.0,11.0,84,0.00,,,0.01,Wunderground v.1.15,2013-04-05 12:06:00,
2013-04-05 05:09:00,53.5,48.8,29.91,WSW,240,5.0,11.0,84,0.00,,,0.01,Wunderground v.1.15,2013-04-05 12:09:00,
2013-04-05 05:12:00,53.5,48.8,29.91,WSW,238,5.0,6.0,84,0.00,,,0.01,Wunderground v.1.15,2013-04-05 12:12:00,
2013-04-05 05:15:00,53.5,48.8,29.91,WSW,238,5.0,6.0,84,0.00,,,0.01,Wunderground v.1.15,2013-04-05 12:15:00,
2013-04-05 05:19:00,53.5,48.8,29.92,SW,229,4.0,6.0,84,0.00,,,0.01,Wunderground v.1.15,2013-04-05 12:19:00,
2013-04-05 05:20:00,53.5,48.8,29.91,West,277,4.0,6.0,84,0.00,,,0.01,Wunderground v.1.15,2013-04-05 12:20:00,
2013-04-05 05:21:00,53.5,48.8,29.91,WSW,245,4.0,6.0,84,0.00,,,0.01,Wunderground v.1.15,2013-04-05 12:21:00,
2013-04-05 05:22:00,53.4,48.7,29.91,West,262,4.0,4.0,84,0.00,,,0.01,Wunderground v.1.15,2013-04-05 12:22:00,
2013-04-05 05:25:00,53.4,48.7,29.91,WSW,242,4.0,6.0,84,0.00,,,0.01,Wunderground v.1.15,2013-04-05 12:25:00,
2013-04-05 05:29:00,53.4,48.7,29.91,WSW,250,5.0,9.0,84,0.00,,,0.01,Wunderground v.1.15,2013-04-05 12:29:00,
2013-04-05 05:33:00,53.4,48.7,29.91,West,270,5.0,8.0,84,0.00,,,0.01,Wunderground v.1.15,2013-04-05 12:33:00,
2013-04-05 05:34:00,53.4,48.7,29.92,South,172,5.0,8.0,84,0.00,,,0.01,Wunderground v.1.15,2013-04-05 12:34:00,
2013-04-05 05:36:00,53.4,48.7,29.92,SW,226,5.0,8.0,84,0.00,,,0.01,Wunderground v.1.15,2013-04-05 12:36:00,
2013-04-05 05:39:00,53.3,48.6,29.92,West,260,4.0,8.0,84,0.00,,,0.01,Wunderground v.1.15,2013-04-05 12:39:00,
2013-04-05 05:40:00,53.3,48.6,29.92,SW,215,4.0,8.0,84,0.00,,,0.01,Wunderground v.1.15,2013-04-05 12:40:00,
2013-04-05 05:45:00,53.3,48.6,29.92,SW,233,3.0,6.0,84,0.00,,,0.01,Wunderground v.1.15,2013-04-05 12:45:00,
2013-04-05 05:46:00,53.3,48.6,29.92,WNW,284,3.0,6.0,84,0.00,,,0.01,Wunderground v.1.15,2013-04-05 12:46:00,
2013-04-05 05:50:00,53.3,48.6,29.92,NW,324,4.0,6.0,84,0.00,,,0.01,Wunderground v.1.15,2013-04-05 12:50:00,
2013-04-05 05:51:00,53.3,48.6,29.92,WSW,257,4.0,6.0,84,0.00,,,0.01,Wunderground v.1.15,2013-04-05 12:51:00,
2013-04-05 05:57:00,53.2,48.5,29.92,WSW,242,3.0,8.0,84,0.00,,,0.01,Wunderground v.1.15,2013-04-05 12:57:00,
2013-04-05 05:58:00,53.2,48.5,29.92,NE,51,3.0,8.0,84,0.00,,,0.01,Wunderground v.1.15,2013-04-05 12:58:00,
2013-04-05 05:59:00,53.2,48.5,29.92,NW,315,3.0,8.0,84,0.00,,,0.01,Wunderground v.1.15,2013-04-05 12:59:00,
2013-04-05 06:02:00,53.3,48.6,29.92,SW,228,3.0,3.0,84,0.00,,,0.01,Wunderground v.1.15,2013-04-05 13:02:00,
2013-04-05 06:04:00,53.2,48.5,29.92,WNW,291,3.0,7.0,84,0.00,,,0.01,Wunderground v.1.15,2013-04-05 13:04:00,
2013-04-05 06:06:00,53.3,48.6,29.92,WSW,240,4.0,7.0,84,0.00,,,0.01,Wunderground v.1.15,2013-04-05 13:06:00,
2013-04-05 06:08:00,53.3,48.6,29.92,WSW,257,4.0,7.0,84,0.00,,,0.01,Wunderground v.1.15,2013-04-05 13:08:00,
2013-04-05 06:10:00,53.3,48.6,29.92,West,270,4.0,7.0,84,0.00,,,0.01,Wunderground v.1.15,2013-04-05 13:10:00,
2013-04-05 06:12:00,53.3,48.6,29.92,South,179,4.0,4.0,84,0.00,,,0.01,Wunderground v.1.15,2013-04-05 13:12:00,
2013-04-05 06:13:00,53.3,48.6,29.92,WSW,252,4.0,4.0,84,0.00,,,0.01,Wunderground v.1.15,2013-04-05 13:13:00,
2013-04-05 06:17:00,53.3,48.6,29.92,West,264,4.0,4.0,84,0.00,,,0.01,Wunderground v.1.15,2013-04-05 13:17:00,
2013-04-05 06:19:00,53.2,48.5,29.92,SSE,160,4.0,4.0,84,0.00,,,0.01,Wunderground v.1.15,2013-04-05 13:19:00,
2013-04-05 06:21:00,53.2,48.8,29.92,WSW,255,3.0,4.0,85,0.00,,,0.01,Wunderground v.1.15,2013-04-05 13:21:00,
2013-04-05 06:22:00,53.2,48.5,29.93,West,262,3.0,3.0,84,0.00,,,0.01,Wunderground v.1.15,2013-04-05 13:22:00,
2013-04-05 06:24:00,53.1,48.7,29.93,West,278,3.0,9.0,85,0.00,,,0.01,Wunderground v.1.15,2013-04-05 13:24:00,
2013-04-05 06:26:00,53.1,48.4,29.93,WSW,246,3.0,9.0,84,0.00,,,0.01,Wunderground v.1.15,2013-04-05 13:26:00,
2013-04-05 06:29:00,53.0,48.6,29.93,SW,224,3.0,9.0,85,0.00,,,0.01,Wunderground v.1.15,2013-04-05 13:29:00,
2013-04-05 06:31:00,53.0,48.6,29.93,West,260,3.0,9.0,85,0.00,,,0.01,Wunderground v.1.15,2013-04-05 13:31:00,
2013-04-05 06:34:00,52.9,48.5,29.93,SW,236,2.0,3.0,85,0.00,,,0.01,Wunderground v.1.15,2013-04-05 13:34:00,
2013-04-05 06:35:00,52.9,48.5,29.93,WSW,252,2.0,5.0,85,0.00,,,0.01,Wunderground v.1.15,2013-04-05 13:35:00,
2013-04-05 06:36:00,52.9,48.5,29.93,SE,143,2.0,5.0,85,0.00,,,0.01,Wunderground v.1.15,2013-04-05 13:36:00,
2013-04-05 06:40:00,52.9,48.5,29.93,West,280,3.0,7.0,85,0.00,,,0.01,Wunderground v.1.15,2013-04-05 13:40:00,
2013-04-05 06:41:00,52.9,48.5,29.93,West,274,3.0,7.0,85,0.00,,,0.01,Wunderground v.1.15,2013-04-05 13:41:00,
2013-04-05 06:43:00,52.9,48.5,29.93,WSW,245,3.0,3.0,85,0.00,,,0.01,Wunderground v.1.15,2013-04-05 13:43:00,
2013-04-05 06:47:00,52.9,48.8,29.93,WSW,242,4.0,7.0,86,0.00,,,0.01,Wunderground v.1.15,2013-04-05 13:47:00,
2013-04-05 06:50:00,52.8,48.7,29.93,WSW,242,4.0,7.0,86,0.00,,,0.01,Wunderground v.1.15,2013-04-05 13:50:00,
2013-04-05 06:52:00,52.8,48.7,29.93,West,274,4.0,4.0,86,0.00,,,0.01,Wunderground v.1.15,2013-04-05 13:52:00,
2013-04-05 06:53:00,52.9,48.8,29.93,NW,304,4.0,4.0,86,0.00,,,0.01,Wunderground v.1.15,2013-04-05 13:53:00,
2013-04-05 06:57:00,52.8,48.7,29.93,SW,224,3.0,5.0,86,0.00,,,0.01,Wunderground v.1.15,2013-04-05 13:57:00,
2013-04-05 06:59:00,52.8,48.7,29.93,SSE,162,3.0,6.0,86,0.00,,,0.01,Wunderground v.1.15,2013-04-05 13:59:00,
2013-04-05 07:03:00,52.8,48.7,29.93,WSW,257,2.0,4.0,86,0.00,,,0.01,Wunderground v.1.15,2013-04-05 14:03:00,
2013-04-05 07:04:00,52.8,48.7,29.93,SW,233,3.0,4.0,86,0.00,,,0.01,Wunderground v.1.15,2013-04-05 14:04:00,
2013-04-05 07:06:00,52.8,48.7,29.93,WSW,242,3.0,4.0,86,0.00,,,0.01,Wunderground v.1.15,2013-04-05 14:06:00,
2013-04-05 07:09:00,52.8,48.7,29.93,West,274,3.0,4.0,86,0.00,,,0.01,Wunderground v.1.15,2013-04-05 14:09:00,
2013-04-05 07:10:00,52.8,48.7,29.93,West,259,3.0,5.0,86,0.00,,,0.01,Wunderground v.1.15,2013-04-05 14:10:00,
2013-04-05 07:11:00,52.8,48.7,29.93,West,276,3.0,5.0,86,0.00,,,0.01,Wunderground v.1.15,2013-04-05 14:11:00,
2013-04-05 07:14:00,52.8,48.7,29.93,WSW,245,3.0,4.0,86,0.00,,,0.01,Wunderground v.1.15,2013-04-05 14:14:00,
2013-04-05 07:15:00,52.8,48.7,29.93,SE,133,3.0,4.0,86,0.00,,,0.01,Wunderground v.1.15,2013-04-05 14:15:00,
2013-04-05 07:17:00,52.9,48.8,29.93,WSW,257,3.0,6.0,86,0.00,,,0.01,Wunderground v.1.15,2013-04-05 14:17:00,
2013-04-05 07:22:00,52.9,48.8,29.93,West,270,3.0,3.0,86,0.00,,,0.01,Wunderground v.1.15,2013-04-05 14:22:00,
2013-04-05 07:23:00,52.9,48.8,29.93,SSE,156,3.0,5.0,86,0.00,,,0.01,Wunderground v.1.15,2013-04-05 14:23:00,
2013-04-05 07:24:00,52.9,48.8,29.93,West,259,2.0,5.0,86,0.00,,,0.01,Wunderground v.1.15,2013-04-05 14:24:00,
2013-04-05 07:28:00,52.9,48.8,29.94,West,259,2.0,5.0,86,0.00,,,0.01,Wunderground v.1.15,2013-04-05 14:28:00,
2013-04-05 07:29:00,53.0,48.9,29.94,WSW,245,2.0,5.0,86,0.00,,,0.01,Wunderground v.1.15,2013-04-05 14:29:00,
2013-04-05 07:30:00,53.0,48.9,29.94,South,169,2.0,5.0,86,0.00,,,0.01,Wunderground v.1.15,2013-04-05 14:30:00,
2013-04-05 07:35:00,53.0,48.9,29.94,SSW,212,2.0,3.0,86,0.00,,,0.01,Wunderground v.1.15,2013-04-05 14:35:00,
2013-04-05 07:36:00,53.0,48.9,29.94,SE,141,2.0,3.0,86,0.00,,,0.01,Wunderground v.1.15,2013-04-05 14:36:00,
2013-04-05 07:37:00,53.0,48.9,29.94,SSW,212,3.0,3.0,86,0.00,,,0.01,Wunderground v.1.15,2013-04-05 14:37:00,
2013-04-05 07:38:00,53.0,48.9,29.94,WSW,242,3.0,3.0,86,0.00,,,0.01,Wunderground v.1.15,2013-04-05 14:38:00,
2013-04-05 07:40:00,53.1,49.0,29.94,SSW,208,2.0,3.0,86,0.00,,,0.01,Wunderground v.1.15,2013-04-05 14:40:00,
2013-04-05 07:43:00,53.1,49.0,29.94,WSW,250,3.0,4.0,86,0.00,,,0.01,Wunderground v.1.15,2013-04-05 14:43:00,
2013-04-05 07:45:00,53.2,49.1,29.94,SW,218,3.0,10.0,86,0.00,,,0.01,Wunderground v.1.15,2013-04-05 14:45:00,
2013-04-05 07:46:00,53.2,49.1,29.94,WNW,284,3.0,10.0,86,0.00,,,0.01,Wunderground v.1.15,2013-04-05 14:46:00,
2013-04-05 07:49:00,53.2,48.8,29.94,West,262,3.0,10.0,85,0.00,,,0.01,Wunderground v.1.15,2013-04-05 14:49:00,
2013-04-05 07:51:00,53.2,48.8,29.94,SW,225,3.0,10.0,85,0.00,,,0.01,Wunderground v.1.15,2013-04-05 14:51:00,
2013-04-05 07:54:00,53.3,49.2,29.94,SSE,150,3.0,3.0,86,0.00,,,0.01,Wunderground v.1.15,2013-04-05 14:54:00,
2013-04-05 07:55:00,53.3,49.2,29.94,West,264,3.0,5.0,86,0.00,,,0.01,Wunderground v.1.15,2013-04-05 14:55:00,
2013-04-05 07:59:00,53.3,48.9,29.94,SSW,210,3.0,7.0,85,0.00,,,0.01,Wunderground v.1.15,2013-04-05 14:59:00,
2013-04-05 08:00:00,53.3,49.2,29.94,WNW,294,3.0,7.0,86,0.00,,,0.01,Wunderground v.1.15,2013-04-05 15:00:00,
2013-04-05 08:03:00,53.3,48.9,29.94,West,274,3.0,7.0,85,0.00,,,0.01,Wunderground v.1.15,2013-04-05 15:03:00,
2013-04-05 08:05:00,53.4,49.0,29.94,West,273,3.0,6.0,85,0.00,,,0.01,Wunderground v.1.15,2013-04-05 15:05:00,
2013-04-05 08:07:00,53.4,49.0,29.94,West,266,3.0,6.0,85,0.00,,,0.01,Wunderground v.1.15,2013-04-05 15:07:00,
2013-04-05 08:12:00,53.4,49.0,29.94,WSW,255,3.0,6.0,85,0.00,,,0.01,Wunderground v.1.15,2013-04-05 15:12:00,
2013-04-05 08:13:00,53.5,49.1,29.94,SE,125,4.0,6.0,85,0.00,,,0.01,Wunderground v.1.15,2013-04-05 15:13:00,
2013-04-05 08:14:00,53.5,49.1,29.94,WSW,243,3.0,4.0,85,0.00,,,0.01,Wunderground v.1.15,2013-04-05 15:14:00,
2013-04-05 08:15:00,53.5,49.1,29.94,WSW,253,3.0,4.0,85,0.00,,,0.01,Wunderground v.1.15,2013-04-05 15:15:00,
2013-04-05 08:18:00,53.5,49.1,29.94,SE,138,3.0,4.0,85,0.00,,,0.01,Wunderground v.1.15,2013-04-05 15:18:00,
2013-04-05 08:19:00,53.6,49.2,29.94,SE,130,2.0,4.0,85,0.00,,,0.01,Wunderground v.1.15,2013-04-05 15:19:00,
2013-04-05 08:23:00,53.6,49.2,29.94,WSW,245,2.0,2.0,85,0.00,,,0.01,Wunderground v.1.15,2013-04-05 15:23:00,
2013-04-05 08:26:00,53.7,49.3,29.94,WSW,238,2.0,3.0,85,0.00,,,0.01,Wunderground v.1.15,2013-04-05 15:26:00,
2013-04-05 08:28:00,53.8,49.1,29.95,West,259,2.0,3.0,84,0.00,,,0.01,Wunderground v.1.15,2013-04-05 15:28:00,
2013-04-05 08:30:00,53.8,49.1,29.95,WSW,246,3.0,7.0,84,0.00,,,0.01,Wunderground v.1.15,2013-04-05 15:30:00,
2013-04-05 08:31:00,53.8,49.1,29.95,WSW,243,2.0,7.0,84,0.00,,,0.01,Wunderground v.1.15,2013-04-05 15:31:00,
2013-04-05 08:33:00,53.8,49.1,29.95,WSW,240,2.0,6.0,84,0.00,,,0.01,Wunderground v.1.15,2013-04-05 15:33:00,
2013-04-05 08:37:00,53.9,49.2,29.95,SW,217,2.0,6.0,84,0.00,,,0.01,Wunderground v.1.15,2013-04-05 15:37:00,
2013-04-05 08:38:00,53.9,49.2,29.95,West,262,2.0,6.0,84,0.00,,,0.01,Wunderground v.1.15,2013-04-05 15:38:00,
2013-04-05 08:43:00,54.0,49.3,29.95,SSE,163,3.0,3.0,84,0.00,,,0.01,Wunderground v.1.15,2013-04-05 15:43:00,
2013-04-05 08:44:00,54.0,49.3,29.95,SSW,197,2.0,3.0,84,0.00,,,0.01,Wunderground v.1.15,2013-04-05 15:44:00,
2013-04-05 08:48:00,54.0,49.3,29.95,NNW,342,2.0,5.0,84,0.00,,,0.01,Wunderground v.1.15,2013-04-05 15:48:00,
2013-04-05 08:51:00,54.0,49.3,29.95,SW,224,2.0,5.0,84,0.00,,,0.01,Wunderground v.1.15,2013-04-05 15:51:00,
2013-04-05 08:53:00,54.1,49.4,29.95,SSW,212,2.0,2.0,84,0.00,,,0.01,Wunderground v.1.15,2013-04-05 15:53:00,
2013-04-05 08:54:00,54.1,49.4,29.95,WNW,284,2.0,2.0,84,0.00,,,0.01,Wunderground v.1.15,2013-04-05 15:54:00,
2013-04-05 08:55:00,54.1,49.4,29.95,SSE,163,2.0,2.0,84,0.00,,,0.01,Wunderground v.1.15,2013-04-05 15:55:00,
2013-04-05 08:59:00,54.1,49.1,29.95,SW,228,2.0,5.0,83,0.00,,,0.01,Wunderground v.1.15,2013-04-05 15:59:00,
2013-04-05 09:01:00,54.1,49.1,29.95,WSW,246,2.0,5.0,83,0.00,,,0.01,Wunderground v.1.15,2013-04-05 16:01:00,
2013-04-05 09:02:00,54.1,49.4,29.95,SW,218,2.0,3.0,84,0.00,,,0.01,Wunderground v.1.15,2013-04-05 16:02:00,
2013-04-05 09:04:00,54.1,49.1,29.95,SSW,211,2.0,4.0,83,0.00,,,0.01,Wunderground v.1.15,2013-04-05 16:04:00,
2013-04-05 09:09:00,54.3,49.2,29.95,SW,228,2.0,4.0,83,0.00,,,0.01,Wunderground v.1.15,2013-04-05 16:09:00,
2013-04-05 09:10:00,54.3,49.2,29.95,South,170,2.0,4.0,83,0.00,,,0.01,Wunderground v.1.15,2013-04-05 16:10:00,
2013-04-05 09:11:00,54.3,49.6,29.95,SE,141,2.0,4.0,84,0.00,,,0.01,Wunderground v.1.15,2013-04-05 16:11:00,
2013-04-05 09:12:00,54.4,49.3,29.95,SE,139,2.0,2.0,83,0.00,,,0.01,Wunderground v.1.15,2013-04-05 16:12:00,
2013-04-05 09:17:00,54.5,49.1,29.95,West,274,2.0,6.0,82,0.00,,,0.01,Wunderground v.1.15,2013-04-05 16:17:00,
2013-04-05 09:18:00,54.6,49.2,29.95,West,263,2.0,6.0,82,0.00,,,0.01,Wunderground v.1.15,2013-04-05 16:18:00,
2013-04-05 09:20:00,54.6,49.2,29.95,WNW,290,3.0,6.0,82,0.00,,,0.01,Wunderground v.1.15,2013-04-05 16:20:00,
2013-04-05 09:22:00,54.6,49.2,29.95,WSW,240,3.0,3.0,82,0.00,,,0.01,Wunderground v.1.15,2013-04-05 16:22:00,
2013-04-05 09:26:00,54.6,49.2,29.95,SSE,158,3.0,4.0,82,0.00,,,0.01,Wunderground v.1.15,2013-04-05 16:26:00,
2013-04-05 09:27:00,54.7,49.3,29.95,West,266,3.0,4.0,82,0.00,,,0.01,Wunderground v.1.15,2013-04-05 16:27:00,
2013-04-05 09:28:00,54.7,49.3,29.95,WSW,237,3.0,4.0,82,0.00,,,0.01,Wunderground v.1.15,2013-04-05 16:28:00,
2013-04-05 09:31:00,54.6,48.9,29.95,South,188,3.0,5.0,81,0.00,,,0.01,Wunderground v.1.15,2013-04-05 16:31:00,
2013-04-05 09:33:00,54.6,49.2,29.95,WSW,243,4.0,7.0,82,0.00,,,0.01,Wunderground v.1.15,2013-04-05 16:33:00,
2013-04-05 09:34:00,54.6,49.2,29.95,West,262,4.0,7.0,82,0.00,,,0.01,Wunderground v.1.15,2013-04-05 16:34:00,
2013-04-05 09:35:00,54.6,49.2,29.95,WNW,289,4.0,7.0,82,0.00,,,0.01,Wunderground v.1.15,2013-04-05 16:35:00,
2013-04-05 09:38:00,54.6,49.2,29.95,West,266,4.0,7.0,82,0.00,,,0.01,Wunderground v.1.15,2013-04-05 16:38:00,
2013-04-05 09:41:00,54.6,49.2,29.95,West,260,3.0,7.0,82,0.00,,,0.01,Wunderground v.1.15,2013-04-05 16:41:00,
2013-04-05 09:42:00,54.6,49.2,29.95,WSW,240,3.0,3.0,82,0.00,,,0.01,Wunderground v.1.15,2013-04-05 16:42:00,
2013-04-05 09:47:00,54.7,49.3,29.95,WSW,240,3.0,6.0,82,0.00,,,0.01,Wunderground v.1.15,2013-04-05 16:47:00,
2013-04-05 09:48:00,54.7,49.3,29.95,SE,130,3.0,6.0,82,0.00,,,0.01,Wunderground v.1.15,2013-04-05 16:48:00,
2013-04-05 09:51:00,54.8,49.4,29.95,SE,124,3.0,6.0,82,0.00,,,0.01,Wunderground v.1.15,2013-04-05 16:51:00,
2013-04-05 09:54:00,54.9,49.5,29.95,NNW,333,3.0,6.0,82,0.00,,,0.01,Wunderground v.1.15,2013-04-05 16:54:00,
2013-04-05 09:56:00,54.9,49.5,29.95,South,188,3.0,8.0,82,0.00,,,0.01,Wunderground v.1.15,2013-04-05 16:56:00,
2013-04-05 09:57:00,54.9,49.5,29.95,SSE,152,3.0,11.0,82,0.00,,,0.01,Wunderground v.1.15,2013-04-05 16:57:00,
2013-04-05 09:58:00,55.0,49.6,29.95,SW,228,4.0,11.0,82,0.00,,,0.01,Wunderground v.1.15,2013-04-05 16:58:00,
2013-04-05 09:59:00,55.0,49.3,29.95,WSW,252,4.0,11.0,81,0.00,,,0.01,Wunderground v.1.15,2013-04-05 16:59:00,
2013-04-05 10:03:00,55.0,49.3,29.95,SW,231,5.0,7.0,81,0.00,,,0.01,Wunderground v.1.15,2013-04-05 17:03:00,
2013-04-05 10:04:00,55.0,49.3,29.95,SE,139,5.0,7.0,81,0.00,,,0.01,Wunderground v.1.15,2013-04-05 17:04:00,
2013-04-05 10:05:00,55.0,49.6,29.95,SW,224,5.0,7.0,82,0.00,,,0.01,Wunderground v.1.15,2013-04-05 17:05:00,
2013-04-05 10:07:00,55.0,49.3,29.95,WNW,293,5.0,7.0,81,0.00,,,0.01,Wunderground v.1.15,2013-04-05 17:07:00,
2013-04-05 10:10:00,55.0,49.3,29.95,WSW,240,5.0,7.0,81,0.00,,,0.01,Wunderground v.1.15,2013-04-05 17:10:00,
2013-04-05 10:12:00,55.0,49.3,29.95,West,269,4.0,4.0,81,0.00,,,0.01,Wunderground v.1.15,2013-04-05 17:12:00,
2013-04-05 10:14:00,55.1,49.7,29.96,WNW,287,3.0,4.0,82,0.00,,,0.01,Wunderground v.1.15,2013-04-05 17:14:00,
2013-04-05 10:15:00,55.1,49.7,29.96,SW,224,3.0,7.0,82,0.00,,,0.01,Wunderground v.1.15,2013-04-05 17:15:00,
2013-04-05 10:18:00,55.2,49.8,29.95,WSW,239,3.0,7.0,82,0.00,,,0.01,Wunderground v.1.15,2013-04-05 17:18:00,
2013-04-05 10:19:00,55.2,49.5,29.96,West,267,3.0,7.0,81,0.00,,,0.01,Wunderground v.1.15,2013-04-05 17:19:00,
2013-04-05 10:21:00,55.1,49.0,29.96,WNW,300,4.0,7.0,80,0.00,,,0.01,Wunderground v.1.15,2013-04-05 17:21:00,
2013-04-05 10:25:00,55.3,49.6,29.96,West,269,4.0,4.0,81,0.00,,,0.01,Wunderground v.1.15,2013-04-05 17:25:00,
2013-04-05 10:26:00,55.3,49.6,29.96,WSW,250,4.0,6.0,81,0.00,,,0.01,Wunderground v.1.15,2013-04-05 17:26:00,
2013-04-05 10:28:00,55.3,49.6,29.96,SSW,197,4.0,6.0,81,0.00,,,0.01,Wunderground v.1.15,2013-04-05 17:28:00,
2013-04-05 10:29:00,55.4,49.7,29.96,SW,229,4.0,6.0,81,0.00,,,0.01,Wunderground v.1.15,2013-04-05 17:29:00,
2013-04-05 10:33:00,55.5,49.4,29.96,SW,229,3.0,3.0,80,0.00,,,0.01,Wunderground v.1.15,2013-04-05 17:33:00,
2013-04-05 10:34:00,55.5,49.8,29.96,SSE,149,3.0,3.0,81,0.00,,,0.01,Wunderground v.1.15,2013-04-05 17:34:00,
2013-04-05 10:38:00,55.5,49.4,29.96,East,96,3.0,3.0,80,0.00,,,0.01,Wunderground v.1.15,2013-04-05 17:38:00,
2013-04-05 10:39:00,55.5,49.8,29.96,SW,219,3.0,3.0,81,0.00,,,0.01,Wunderground v.1.15,2013-04-05 17:39:00,
2013-04-05 10:40:00,55.6,49.9,29.96,East,97,2.0,5.0,81,0.00,,,0.01,Wunderground v.1.15,2013-04-05 17:40:00,
2013-04-05 10:41:00,55.6,49.5,29.96,SSE,151,3.0,5.0,80,0.00,,,0.01,Wunderground v.1.15,2013-04-05 17:41:00,
2013-04-05 10:43:00,55.5,49.4,29.96,SE,145,3.0,6.0,80,0.00,,,0.01,Wunderground v.1.15,2013-04-05 17:43:00,
2013-04-05 10:46:00,55.5,49.4,29.96,SW,228,3.0,6.0,80,0.00,,,0.01,Wunderground v.1.15,2013-04-05 17:46:00,
2013-04-05 10:48:00,55.5,49.8,29.96,WSW,252,3.0,6.0,81,0.00,,,0.01,Wunderground v.1.15,2013-04-05 17:48:00,
2013-04-05 10:50:00,55.4,49.7,29.96,West,264,3.0,6.0,81,0.00,,,0.01,Wunderground v.1.15,2013-04-05 17:50:00,
2013-04-05 10:51:00,55.3,49.6,29.96,West,266,3.0,6.0,81,0.00,,,0.01,Wunderground v.1.15,2013-04-05 17:51:00,
2013-04-05 10:55:00,55.3,49.6,29.96,NNE,18,3.0,3.0,81,0.00,,,0.01,Wunderground v.1.15,2013-04-05 17:55:00,
2013-04-05 10:56:00,55.2,49.8,29.96,West,259,2.0,3.0,82,0.00,,,0.01,Wunderground v.1.15,2013-04-05 17:56:00,
2013-04-05 10:57:00,55.3,49.9,29.96,SW,232,2.0,3.0,82,0.00,,,0.01,Wunderground v.1.15,2013-04-05 17:57:00,
2013-04-05 11:01:00,55.3,49.6,29.96,West,259,2.0,3.0,81,0.00,,,0.01,Wunderground v.1.15,2013-04-05 18:01:00,
2013-04-05 11:02:00,55.2,49.5,29.96,WSW,250,2.0,2.0,81,0.00,,,0.01,Wunderground v.1.15,2013-04-05 18:02:00,
2013-04-05 11:04:00,55.2,49.8,29.96,SSE,167,2.0,3.0,82,0.00,,,0.01,Wunderground v.1.15,2013-04-05 18:04:00,
2013-04-05 11:06:00,55.0,49.9,29.96,SW,229,2.0,3.0,83,0.00,,,0.01,Wunderground v.1.15,2013-04-05 18:06:00,
2013-04-05 11:08:00,54.8,49.7,29.96,WSW,253,2.0,4.0,83,0.00,,,0.01,Wunderground v.1.15,2013-04-05 18:08:00,
2013-04-05 11:09:00,54.7,49.6,29.96,WSW,238,3.0,4.0,83,0.00,,,0.01,Wunderground v.1.15,2013-04-05 18:09:00,
2013-04-05 11:11:00,54.6,49.5,29.96,WSW,245,3.0,4.0,83,0.00,,,0.01,Wunderground v.1.15,2013-04-05 18:11:00,
2013-04-05 11:14:00,54.5,49.8,29.96,West,262,2.0,5.0,84,0.00,,,0.01,Wunderground v.1.15,2013-04-05 18:14:00,
2013-04-05 11:16:00,54.4,49.7,29.96,WSW,237,3.0,5.0,84,0.00,,,0.01,Wunderground v.1.15,2013-04-05 18:16:00,
2013-04-05 11:17:00,54.3,49.9,29.96,WSW,250,3.0,5.0,85,0.00,,,0.01,Wunderground v.1.15,2013-04-05 18:17:00,
2013-04-05 11:22:00,54.1,49.7,29.96,SSW,208,2.0,2.0,85,0.00,,,0.01,Wunderground v.1.15,2013-04-05 18:22:00,
2013-04-05 11:23:00,54.1,50.0,29.96,WSW,257,2.0,2.0,86,0.00,,,0.01,Wunderground v.1.15,2013-04-05 18:23:00,
2013-04-05 11:24:00,54.1,50.3,29.96,SSW,207,2.0,2.0,87,0.00,,,0.01,Wunderground v.1.15,2013-04-05 18:24:00,
2013-04-05 11:28:00,53.9,49.8,29.96,WSW,248,1.0,2.0,86,0.00,,,0.01,Wunderground v.1.15,2013-04-05 18:28:00,
2013-04-05 11:29:00,53.9,50.1,29.96,SW,214,1.0,2.0,87,0.00,,,0.01,Wunderground v.1.15,2013-04-05 18:29:00,
2013-04-05 11:30:00,53.9,50.1,29.96,SE,141,1.0,2.0,87,0.00,,,0.01,Wunderground v.1.15,2013-04-05 18:30:00,
2013-04-05 11:31:00,53.9,50.1,29.96,SSE,155,1.0,2.0,87,0.00,,,0.01,Wunderground v.1.15,2013-04-05 18:31:00,
2013-04-05 11:34:00,54.0,50.5,29.96,West,262,1.0,2.0,88,0.00,,,0.01,Wunderground v.1.15,2013-04-05 18:34:00,
2013-04-05 11:37:00,54.1,50.3,29.96,WSW,257,1.0,2.0,87,0.00,,,0.01,Wunderground v.1.15,2013-04-05 18:37:00,
2013-04-05 11:39:00,54.2,50.4,29.96,SW,233,1.0,2.0,87,0.00,,,0.01,Wunderground v.1.15,2013-04-05 18:39:00,
2013-04-05 11:42:00,54.6,50.5,29.96,WSW,245,1.0,1.0,86,0.00,,,0.01,Wunderground v.1.15,2013-04-05 18:42:00,
2013-04-05 11:44:00,55.0,50.9,29.96,West,274,1.0,1.0,86,0.00,,,0.01,Wunderground v.1.15,2013-04-05 18:44:00,
2013-04-05 11:49:00,55.9,51.1,29.96,South,191,2.0,3.0,84,0.00,,,0.01,Wunderground v.1.15,2013-04-05 18:49:00,
2013-04-05 11:50:00,56.0,50.9,29.96,SSW,206,2.0,3.0,83,0.00,,,0.01,Wunderground v.1.15,2013-04-05 18:50:00,
2013-04-05 11:51:00,56.0,50.9,29.96,WNW,293,2.0,3.0,83,0.00,,,0.01,Wunderground v.1.15,2013-04-05 18:51:00,
2013-04-05 11:53:00,56.1,50.7,29.96,South,171,2.0,8.0,82,0.00,,,0.01,Wunderground v.1.15,2013-04-05 18:53:00,
2013-04-05 11:55:00,56.3,50.9,29.96,SE,126,3.0,8.0,82,0.00,,,0.01,Wunderground v.1.15,2013-04-05 18:55:00,
2013-04-05 11:56:00,56.3,50.5,29.96,WSW,250,3.0,8.0,81,0.00,,,0.01,Wunderground v.1.15,2013-04-05 18:56:00,
2013-04-05 11:57:00,56.3,50.5,29.96,SW,228,3.0,8.0,81,0.00,,,0.01,Wunderground v.1.15,2013-04-05 18:57:00,
2013-04-05 12:00:00,56.4,50.6,29.96,WSW,246,3.0,8.0,81,0.00,,,0.01,Wunderground v.1.15,2013-04-05 19:00:00,
2013-04-05 12:01:00,56.3,50.2,29.96,SSW,207,3.0,8.0,80,0.00,,,0.01,Wunderground v.1.15,2013-04-05 19:01:00,
2013-04-05 12:02:00,56.3,50.2,29.96,SE,131,4.0,7.0,80,0.00,,,0.01,Wunderground v.1.15,2013-04-05 19:02:00,
2013-04-05 12:06:00,56.4,50.6,29.96,SW,215,4.0,7.0,81,0.00,,,0.01,Wunderground v.1.15,2013-04-05 19:06:00,
2013-04-05 12:07:00,56.4,50.3,29.96,WSW,243,4.0,7.0,80,0.00,,,0.01,Wunderground v.1.15,2013-04-05 19:07:00,
2013-04-05 12:08:00,56.4,50.3,29.96,WSW,241,4.0,10.0,80,0.00,,,0.01,Wunderground v.1.15,2013-04-05 19:08:00,
2013-04-05 12:12:00,56.4,50.6,29.96,WSW,257,4.0,4.0,81,0.00,,,0.01,Wunderground v.1.15,2013-04-05 19:12:00,
2013-04-05 12:13:00,56.5,50.7,29.96,ESE,123,4.0,5.0,81,0.00,,,0.01,Wunderground v.1.15,2013-04-05 19:13:00,
2013-04-05 12:14:00,56.5,50.4,29.96,SE,133,4.0,9.0,80,0.00,,,0.01,Wunderground v.1.15,2013-04-05 19:14:00,
2013-04-05 12:16:00,56.6,50.5,29.96,West,267,4.0,9.0,80,0.00,,,0.01,Wunderground v.1.15,2013-04-05 19:16:00,
2013-04-05 12:18:00,56.6,50.5,29.96,WSW,240,3.0,9.0,80,0.00,,,0.01,Wunderground v.1.15,2013-04-05 19:18:00,
2013-04-05 12:19:00,56.7,50.3,29.96,WSW,256,3.0,9.0,79,0.00,,,0.01,Wunderground v.1.15,2013-04-05 19:19:00,
2013-04-05 12:21:00,56.8,50.4,29.96,WSW,249,3.0,9.0,79,0.00,,,0.01,Wunderground v.1.15,2013-04-05 19:21:00,
2013-04-05 12:23:00,56.9,50.1,29.96,WNW,283,4.0,5.0,78,0.00,,,0.01,Wunderground v.1.15,2013-04-05 19:23:00,
2013-04-05 12:28:00,57.0,49.9,29.95,SSW,201,5.0,7.0,77,0.00,,,0.01,Wunderground v.1.15,2013-04-05 19:28:00,
2013-04-05 12:29:00,57.1,50.3,29.96,WSW,250,5.0,7.0,78,0.00,,,0.01,Wunderground v.1.15,2013-04-05 19:29:00,
2013-04-05 12:32:00,57.3,50.1,29.95,SW,233,5.0,6.0,77,0.00,,,0.01,Wunderground v.1.15,2013-04-05 19:32:00,
2013-04-05 12:34:00,57.4,50.2,29.96,WNW,290,4.0,7.0,77,0.00,,,0.01,Wunderground v.1.15,2013-04-05 19:34:00,
2013-04-05 12:35:00,57.3,49.8,29.95,West,260,5.0,7.0,76,0.00,,,0.01,Wunderground v.1.15,2013-04-05 19:35:00,
2013-04-05 12:37:00,57.3,49.8,29.96,SSW,212,5.0,7.0,76,0.00,,,0.01,Wunderground v.1.15,2013-04-05 19:37:00,
2013-04-05 12:42:00,57.2,50.1,29.96,SW,214,6.0,6.0,77,0.00,,,0.01,Wunderground v.1.15,2013-04-05 19:42:00,
2013-04-05 12:43:00,57.2,50.1,29.96,West,276,6.0,6.0,77,0.00,,,0.01,Wunderground v.1.15,2013-04-05 19:43:00,
2013-04-05 12:48:00,57.2,50.4,29.96,WSW,240,6.0,7.0,78,0.00,,,0.01,Wunderground v.1.15,2013-04-05 19:48:00,
2013-04-05 12:50:00,57.3,50.1,29.96,SE,146,6.0,7.0,77,0.00,,,0.01,Wunderground v.1.15,2013-04-05 19:50:00,
2013-04-05 12:51:00,57.4,50.6,29.96,WSW,239,5.0,7.0,78,0.00,,,0.01,Wunderground v.1.15,2013-04-05 19:51:00,
2013-04-05 12:55:00,57.6,50.4,29.96,West,278,5.0,5.0,77,0.00,,,0.01,Wunderground v.1.15,2013-04-05 19:55:00,
2013-04-05 12:56:00,57.6,50.4,29.96,WSW,256,5.0,7.0,77,0.00,,,0.01,Wunderground v.1.15,2013-04-05 19:56:00,
2013-04-05 12:57:00,57.6,50.4,29.96,West,259,5.0,7.0,77,0.00,,,0.01,Wunderground v.1.15,2013-04-05 19:57:00,
2013-04-05 12:58:00,57.6,50.4,29.95,WSW,245,5.0,8.0,77,0.00,,,0.01,Wunderground v.1.15,2013-04-05 19:58:00,
2013-04-05 13:02:00,57.7,50.2,29.96,SW,229,5.0,9.0,76,0.00,,,0.01,Wunderground v.1.15,2013-04-05 20:02:00,
2013-04-05 13:04:00,57.6,50.1,29.95,West,278,6.0,10.0,76,0.00,,,0.01,Wunderground v.1.15,2013-04-05 20:04:00,
2013-04-05 13:06:00,57.6,49.7,29.95,West,264,6.0,10.0,75,0.00,,,0.01,Wunderground v.1.15,2013-04-05 20:06:00,
2013-04-05 13:08:00,57.6,49.7,29.95,WSW,243,7.0,10.0,75,0.00,,,0.01,Wunderground v.1.15,2013-04-05 20:08:00,
2013-04-05 13:10:00,57.6,49.7,29.95,West,259,7.0,10.0,75,0.00,,,0.01,Wunderground v.1.15,2013-04-05 20:10:00,
2013-04-05 13:12:00,57.7,49.8,29.95,West,280,7.0,9.0,75,0.00,,,0.01,Wunderground v.1.15,2013-04-05 20:12:00,
2013-04-05 13:13:00,57.8,49.9,29.95,South,191,7.0,9.0,75,0.00,,,0.01,Wunderground v.1.15,2013-04-05 20:13:00,
2013-04-05 13:15:00,57.9,50.0,29.95,West,267,6.0,9.0,75,0.00,,,0.01,Wunderground v.1.15,2013-04-05 20:15:00,
2013-04-05 13:17:00,58.0,49.8,29.95,WNW,289,6.0,9.0,74,0.00,,,0.01,Wunderground v.1.15,2013-04-05 20:17:00,
2013-04-05 13:19:00,58.0,49.8,29.96,South,179,5.0,9.0,74,0.00,,,0.01,Wunderground v.1.15,2013-04-05 20:19:00,
2013-04-05 13:21:00,58.1,49.9,29.96,SW,233,5.0,9.0,74,0.00,,,0.01,Wunderground v.1.15,2013-04-05 20:21:00,
2013-04-05 13:25:00,58.3,50.0,29.96,SW,233,5.0,5.0,74,0.00,,,0.01,Wunderground v.1.15,2013-04-05 20:25:00,
2013-04-05 13:27:00,58.5,49.9,29.95,SW,236,4.0,5.0,73,0.00,,,0.01,Wunderground v.1.15,2013-04-05 20:27:00,
2013-04-05 13:28:00,58.6,50.3,29.96,West,267,4.0,17.0,74,0.00,,,0.01,Wunderground v.1.15,2013-04-05 20:28:00,
2013-04-05 13:31:00,58.5,49.5,29.96,SE,142,5.0,17.0,72,0.00,,,0.01,Wunderground v.1.15,2013-04-05 20:31:00,
2013-04-05 13:33:00,58.6,49.2,29.96,SW,219,5.0,6.0,71,0.00,,,0.01,Wunderground v.1.15,2013-04-05 20:33:00,
2013-04-05 13:34:00,58.6,49.2,29.96,West,259,5.0,6.0,71,0.00,,,0.01,Wunderground v.1.15,2013-04-05 20:34:00,
2013-04-05 13:37:00,58.5,49.1,29.96,SW,224,6.0,9.0,71,0.00,,,0.01,Wunderground v.1.15,2013-04-05 20:37:00,
2013-04-05 13:39:00,58.4,49.0,29.95,SW,232,6.0,9.0,71,0.00,,,0.01,Wunderground v.1.15,2013-04-05 20:39:00,
2013-04-05 13:42:00,58.5,49.1,29.96,WSW,248,6.0,6.0,71,0.00,,,0.01,Wunderground v.1.15,2013-04-05 20:42:00,
2013-04-05 13:43:00,58.5,49.5,29.95,West,259,6.0,7.0,72,0.00,,,0.01,Wunderground v.1.15,2013-04-05 20:43:00,
2013-04-05 13:45:00,58.6,49.2,29.96,SW,217,6.0,7.0,71,0.00,,,0.01,Wunderground v.1.15,2013-04-05 20:45:00,
2013-04-05 13:46:00,58.6,48.8,29.95,West,262,6.0,7.0,70,0.00,,,0.01,Wunderground v.1.15,2013-04-05 20:46:00,
2013-04-05 13:48:00,58.6,48.8,29.95,WSW,243,6.0,8.0,70,0.00,,,0.01,Wunderground v.1.15,2013-04-05 20:48:00,
2013-04-05 13:52:00,58.7,49.3,29.95,WSW,256,6.0,6.0,71,0.00,,,0.01,Wunderground v.1.15,2013-04-05 20:52:00,
2013-04-05 13:53:00,58.8,49.4,29.95,SE,145,6.0,6.0,71,0.00,,,0.01,Wunderground v.1.15,2013-04-05 20:53:00,
2013-04-05 13:55:00,59.0,50.0,29.95,West,264,5.0,6.0,72,0.00,,,0.01,Wunderground v.1.15,2013-04-05 20:55:00,
2013-04-05 13:57:00,59.0,49.2,29.95,SW,233,4.0,6.0,70,0.00,,,0.01,Wunderground v.1.15,2013-04-05 20:57:00,
2013-04-05 13:59:00,59.1,49.3,29.96,SW,214,4.0,6.0,70,0.00,,,0.01,Wunderground v.1.15,2013-04-05 20:59:00,
2013-04-05 14:02:00,59.0,48.4,29.95,SW,233,4.0,8.0,68,0.00,,,0.01,Wunderground v.1.15,2013-04-05 21:02:00,
2013-04-05 14:03:00,59.0,48.4,29.95,WNW,288,4.0,5.0,68,0.00,,,0.01,Wunderground v.1.15,2013-04-05 21:03:00,
2013-04-05 14:05:00,58.9,48.7,29.95,West,271,4.0,9.0,69,0.00,,,0.01,Wunderground v.1.15,2013-04-05 21:05:00,
2013-04-05 14:06:00,58.9,48.7,29.95,SSW,193,5.0,9.0,69,0.00,,,0.01,Wunderground v.1.15,2013-04-05 21:06:00,
2013-04-05 14:07:00,58.9,48.7,29.95,WNW,301,5.0,9.0,69,0.00,,,0.01,Wunderground v.1.15,2013-04-05 21:07:00,
2013-04-05 14:09:00,58.8,48.6,29.95,WSW,248,5.0,9.0,69,0.00,,,0.01,Wunderground v.1.15,2013-04-05 21:09:00,
2013-04-05 14:12:00,58.7,48.9,29.95,WSW,243,5.0,9.0,70,0.00,,,0.01,Wunderground v.1.15,2013-04-05 21:12:00,
2013-04-05 14:18:00,58.7,49.3,29.95,WSW,240,4.0,6.0,71,0.00,,,0.01,Wunderground v.1.15,2013-04-05 21:18:00,
2013-04-05 14:19:00,58.7,49.3,29.95,West,281,4.0,9.0,71,0.00,,,0.01,Wunderground v.1.15,2013-04-05 21:19:00,
2013-04-05 14:20:00,58.7,49.3,29.95,WSW,250,4.0,9.0,71,0.00,,,0.01,Wunderground v.1.15,2013-04-05 21:20:00,
2013-04-05 14:24:00,58.7,49.3,29.95,West,262,4.0,5.0,71,0.00,,,0.01,Wunderground v.1.15,2013-04-05 21:24:00,
2013-04-05 14:26:00,58.6,49.2,29.95,WSW,253,4.0,5.0,71,0.00,,,0.01,Wunderground v.1.15,2013-04-05 21:26:00,
2013-04-05 14:29:00,58.6,49.2,29.95,West,273,4.0,5.0,71,0.00,,,0.01,Wunderground v.1.15,2013-04-05 21:29:00,
2013-04-05 14:30:00,58.5,48.7,29.95,WSW,243,4.0,6.0,70,0.00,,,0.01,Wunderground v.1.15,2013-04-05 21:30:00,
2013-04-05 14:34:00,58.6,48.8,29.95,SW,222,4.0,5.0,70,0.00,,,0.01,Wunderground v.1.15,2013-04-05 21:34:00,
2013-04-05 14:39:00,58.7,48.9,29.95,West,274,4.0,7.0,70,0.00,,,0.01,Wunderground v.1.15,2013-04-05 21:39:00,
2013-04-05 14:40:00,58.7,48.6,29.95,SSW,203,4.0,7.0,69,0.00,,,0.01,Wunderground v.1.15,2013-04-05 21:40:00,
2013-04-05 14:42:00,58.7,48.6,29.95,SW,218,4.0,9.0,69,0.00,,,0.01,Wunderground v.1.15,2013-04-05 21:42:00,
2013-04-05 14:44:00,58.7,48.6,29.95,WSW,242,4.0,4.0,69,0.00,,,0.01,Wunderground v.1.15,2013-04-05 21:44:00,
2013-04-05 14:47:00,58.8,49.0,29.95,ESE,115,4.0,4.0,70,0.00,,,0.01,Wunderground v.1.15,2013-04-05 21:47:00,
2013-04-05 14:49:00,58.8,49.0,29.95,SW,229,4.0,10.0,70,0.00,,,0.01,Wunderground v.1.15,2013-04-05 21:49:00,
2013-04-05 14:50:00,58.8,49.0,29.95,West,264,5.0,10.0,70,0.00,,,0.01,Wunderground v.1.15,2013-04-05 21:50:00,
2013-04-05 14:51:00,58.8,48.6,29.95,West,259,4.0,10.0,69,0.00,,,0.01,Wunderground v.1.15,2013-04-05 21:51:00,
2013-04-05 14:52:00,58.8,48.3,29.95,SW,214,4.0,5.0,68,0.00,,,0.01,Wunderground v.1.15,2013-04-05 21:52:00,
2013-04-05 14:56:00,58.8,48.6,29.95,SW,222,4.0,5.0,69,0.00,,,0.01,Wunderground v.1.15,2013-04-05 21:56:00,
2013-04-05 14:57:00,58.8,48.3,29.95,West,267,4.0,8.0,68,0.00,,,0.01,Wunderground v.1.15,2013-04-05 21:57:00,
2013-04-05 15:00:00,58.6,48.5,29.95,SE,129,4.0,8.0,69,0.00,,,0.01,Wunderground v.1.15,2013-04-05 22:00:00,
2013-04-05 15:01:00,58.5,48.0,29.95,WSW,245,5.0,8.0,68,0.00,,,0.01,Wunderground v.1.15,2013-04-05 22:01:00,
2013-04-05 15:03:00,58.4,47.9,29.95,West,280,5.0,7.0,68,0.00,,,0.01,Wunderground v.1.15,2013-04-05 22:03:00,
2013-04-05 15:04:00,58.3,48.2,29.95,West,271,6.0,12.0,69,0.00,,,0.01,Wunderground v.1.15,2013-04-05 22:04:00,
2013-04-05 15:08:00,58.2,48.5,29.95,SW,228,6.0,12.0,70,0.00,,,0.01,Wunderground v.1.15,2013-04-05 22:08:00,
2013-04-05 15:09:00,58.2,48.8,29.95,West,278,6.0,12.0,71,0.00,,,0.01,Wunderground v.1.15,2013-04-05 22:09:00,
2013-04-05 15:12:00,58.1,48.7,29.95,West,271,5.0,5.0,71,0.00,,,0.01,Wunderground v.1.15,2013-04-05 22:12:00,
2013-04-05 15:14:00,58.0,49.4,29.95,SSW,207,5.0,5.0,73,0.00,,,0.01,Wunderground v.1.15,2013-04-05 22:14:00,
2013-04-05 15:17:00,57.7,49.1,29.95,SW,221,4.0,5.0,73,0.00,,,0.01,Wunderground v.1.15,2013-04-05 22:17:00,
2013-04-05 15:19:00,57.5,48.9,29.95,West,269,4.0,5.0,73,0.00,,,0.01,Wunderground v.1.15,2013-04-05 22:19:00,
2013-04-05 15:22:00,57.3,48.7,29.95,WSW,239,4.0,4.0,73,0.00,,,0.01,Wunderground v.1.15,2013-04-05 22:22:00,
2013-04-05 15:29:00,56.8,49.3,29.95,SW,221,3.0,8.0,76,0.00,,,0.01,Wunderground v.1.15,2013-04-05 22:29:00,
2013-04-05 15:31:00,56.6,49.1,29.95,WSW,256,4.0,8.0,76,0.00,,,0.01,Wunderground v.1.15,2013-04-05 22:31:00,
2013-04-05 15:32:00,56.5,49.0,29.95,SW,224,4.0,4.0,76,0.00,,,0.01,Wunderground v.1.15,2013-04-05 22:32:00,
2013-04-05 15:35:00,56.4,49.3,29.95,WSW,240,4.0,4.0,77,0.00,,,0.01,Wunderground v.1.15,2013-04-05 22:35:00,
2013-04-05 15:38:00,56.3,49.5,29.95,SW,215,4.0,4.0,78,0.00,,,0.01,Wunderground v.1.15,2013-04-05 22:38:00,
2013-04-05 15:40:00,56.2,49.8,29.95,West,280,3.0,4.0,79,0.00,,,0.01,Wunderground v.1.15,2013-04-05 22:40:00,
2013-04-05 15:44:00,56.1,49.7,29.95,ESE,107,2.0,4.0,79,0.00,,,0.02,Wunderground v.1.15,2013-04-05 22:44:00,
2013-04-05 15:45:00,56.1,50.0,29.95,SW,233,2.0,4.0,80,0.00,,,0.02,Wunderground v.1.15,2013-04-05 22:45:00,
2013-04-05 15:46:00,56.1,50.0,29.95,West,270,2.0,4.0,80,0.00,,,0.02,Wunderground v.1.15,2013-04-05 22:46:00,
2013-04-05 15:49:00,56.1,50.0,29.95,South,174,1.0,4.0,80,0.00,,,0.02,Wunderground v.1.15,2013-04-05 22:49:00,
2013-04-05 15:50:00,56.1,50.0,29.95,WSW,243,1.0,4.0,80,0.00,,,0.02,Wunderground v.1.15,2013-04-05 22:50:00,
2013-04-05 15:51:00,56.0,50.3,29.95,East,100,1.0,4.0,81,0.00,,,0.02,Wunderground v.1.15,2013-04-05 22:51:00,
2013-04-05 15:57:00,55.7,50.0,29.95,SE,146,1.0,4.0,81,0.00,,,0.02,Wunderground v.1.15,2013-04-05 22:57:00,
2013-04-05 15:59:00,55.6,50.2,29.95,WSW,257,1.0,4.0,82,0.00,,,0.02,Wunderground v.1.15,2013-04-05 22:59:00,
2013-04-05 16:01:00,55.4,49.7,29.95,WSW,239,2.0,6.0,81,0.00,,,0.02,Wunderground v.1.15,2013-04-05 23:01:00,
2013-04-05 16:02:00,55.3,49.9,29.95,SSW,193,2.0,2.0,82,0.00,,,0.02,Wunderground v.1.15,2013-04-05 23:02:00,
2013-04-05 16:04:00,55.1,50.0,29.95,WSW,243,2.0,2.0,83,0.00,,,0.02,Wunderground v.1.15,2013-04-05 23:04:00,
2013-04-05 16:06:00,55.0,49.6,29.95,WSW,251,2.0,4.0,82,0.00,,,0.02,Wunderground v.1.15,2013-04-05 23:06:00,
2013-04-05 16:07:00,54.9,49.5,29.95,WSW,245,3.0,5.0,82,0.00,,,0.02,Wunderground v.1.15,2013-04-05 23:07:00,
2013-04-05 16:10:00,54.8,49.7,29.95,NW,308,3.0,5.0,83,0.00,,,0.02,Wunderground v.1.15,2013-04-05 23:10:00,
2013-04-05 16:11:00,54.7,49.6,29.95,West,271,3.0,5.0,83,0.00,,,0.02,Wunderground v.1.15,2013-04-05 23:11:00,
2013-04-05 16:12:00,54.6,49.5,29.95,West,266,4.0,8.0,83,0.00,,,0.02,Wunderground v.1.15,2013-04-05 23:12:00,
2013-04-05 16:17:00,54.5,49.8,29.95,West,259,4.0,8.0,84,0.00,,,0.03,Wunderground v.1.15,2013-04-05 23:17:00,
2013-04-05 16:19:00,54.4,49.3,29.95,West,259,4.0,8.0,83,0.00,,,0.03,Wunderground v.1.15,2013-04-05 23:19:00,
2013-04-05 16:20:00,54.3,49.6,29.95,WSW,256,4.0,8.0,84,0.00,,,0.03,Wunderground v.1.15,2013-04-05 23:20:00,
2013-04-05 16:21:00,54.3,49.2,29.95,SW,229,3.0,8.0,83,0.00,,,0.03,Wunderground v.1.15,2013-04-05 23:21:00,
2013-04-05 16:27:00,54.1,49.4,29.95,WSW,246,4.0,5.0,84,0.00,,,0.03,Wunderground v.1.15,2013-04-05 23:27:00,
2013-04-05 16:29:00,54.1,49.7,29.95,SW,224,4.0,5.0,85,0.00,,,0.03,Wunderground v.1.15,2013-04-05 23:29:00,
2013-04-05 16:31:00,54.0,49.6,29.95,West,274,4.0,5.0,85,0.00,,,0.03,Wunderground v.1.15,2013-04-05 23:31:00,
2013-04-05 16:33:00,54.0,49.6,29.95,WSW,253,4.0,4.0,85,0.00,,,0.03,Wunderground v.1.15,2013-04-05 23:33:00,
2013-04-05 16:36:00,53.8,49.7,29.95,WNW,290,3.0,5.0,86,0.00,,,0.03,Wunderground v.1.15,2013-04-05 23:36:00,
2013-04-05 16:38:00,53.8,49.7,29.95,WSW,253,4.0,5.0,86,0.00,,,0.03,Wunderground v.1.15,2013-04-05 23:38:00,
2013-04-05 16:40:00,53.7,49.6,29.95,WSW,245,3.0,5.0,86,0.00,,,0.03,Wunderground v.1.15,2013-04-05 23:40:00,
2013-04-05 16:41:00,53.7,49.6,29.95,SW,221,3.0,5.0,86,0.00,,,0.03,Wunderground v.1.15,2013-04-05 23:41:00,
2013-04-05 16:44:00,53.6,49.5,29.95,West,262,4.0,5.0,86,0.00,,,0.03,Wunderground v.1.15,2013-04-05 23:44:00,
2013-04-05 16:46:00,53.5,49.7,29.95,WSW,238,4.0,8.0,87,0.00,,,0.04,Wunderground v.1.15,2013-04-05 23:46:00,
2013-04-05 16:47:00,53.5,49.7,29.95,SW,228,4.0,8.0,87,0.00,,,0.04,Wunderground v.1.15,2013-04-05 23:47:00,
2013-04-05 16:49:00,53.4,49.6,29.95,WSW,257,4.0,8.0,87,0.00,,,0.04,Wunderground v.1.15,2013-04-05 23:49:00,
2013-04-05 16:54:00,53.3,49.5,29.95,West,266,4.0,4.0,87,0.00,,,0.04,Wunderground v.1.15,2013-04-05 23:54:00,
2013-04-05 16:55:00,53.3,49.8,29.95,WSW,250,4.0,4.0,88,0.00,,,0.04,Wunderground v.1.15,2013-04-05 23:55:00,
2013-04-05 16:56:00,53.3,49.8,29.95,SW,224,3.0,4.0,88,0.00,,,0.04,Wunderground v.1.15,2013-04-05 23:56:00,
2013-04-05 17:00:00,53.2,49.7,29.95,WSW,255,3.0,4.0,88,0.00,,,0.04,Wunderground v.1.15,2013-04-06 00:00:00,
2013-04-05 17:01:00,53.2,49.7,29.95,West,281,3.0,4.0,88,0.00,,,0.04,Wunderground v.1.15,2013-04-06 00:01:00,
2013-04-05 17:03:00,53.2,49.7,29.95,West,259,3.0,3.0,88,0.00,,,0.04,Wunderground v.1.15,2013-04-06 00:03:00,
2013-04-05 17:05:00,53.1,49.6,29.95,West,274,3.0,3.0,88,0.00,,,0.05,Wunderground v.1.15,2013-04-06 00:05:00,
2013-04-05 17:07:00,53.1,49.6,29.95,SSW,210,3.0,4.0,88,0.00,,,0.05,Wunderground v.1.15,2013-04-06 00:07:00,
2013-04-05 17:09:00,53.1,49.9,29.95,SSW,210,3.0,4.0,89,0.00,,,0.05,Wunderground v.1.15,2013-04-06 00:09:00,
2013-04-05 17:10:00,53.0,49.8,29.95,WSW,238,3.0,4.0,89,0.00,,,0.05,Wunderground v.1.15,2013-04-06 00:10:00,
2013-04-05 17:12:00,53.0,49.8,29.95,WSW,240,3.0,4.0,89,0.00,,,0.05,Wunderground v.1.15,2013-04-06 00:12:00,
2013-04-05 17:13:00,53.0,49.8,29.95,WSW,253,2.0,2.0,89,0.00,,,0.05,Wunderground v.1.15,2013-04-06 00:13:00,
2013-04-05 17:15:00,53.0,49.8,29.94,WNW,289,2.0,2.0,89,0.00,,,0.05,Wunderground v.1.15,2013-04-06 00:15:00,
2013-04-05 17:17:00,52.9,49.7,29.95,WSW,240,2.0,2.0,89,0.00,,,0.05,Wunderground v.1.15,2013-04-06 00:17:00,
2013-04-05 17:19:00,52.9,49.7,29.95,West,266,2.0,2.0,89,0.04,,,0.06,Wunderground v.1.15,2013-04-06 00:19:00,
2013-04-05 17:20:00,52.9,50.0,29.95,WSW,245,2.0,2.0,90,0.04,,,0.06,Wunderground v.1.15,2013-04-06 00:20:00,
2013-04-05 17:24:00,52.8,49.9,29.95,SSE,167,1.0,2.0,90,0.04,,,0.06,Wunderground v.1.15,2013-04-06 00:24:00,
2013-04-05 17:26:00,52.8,49.9,29.94,SE,135,1.0,2.0,90,0.04,,,0.06,Wunderground v.1.15,2013-04-06 00:26:00,
2013-04-05 17:27:00,52.8,49.9,29.94,WSW,253,1.0,2.0,90,0.04,,,0.06,Wunderground v.1.15,2013-04-06 00:27:00,
2013-04-05 17:29:00,52.8,49.6,29.94,SE,136,1.0,6.0,89,0.07,,,0.07,Wunderground v.1.15,2013-04-06 00:29:00,
2013-04-05 17:31:00,52.8,49.6,29.94,WSW,242,2.0,6.0,89,0.07,,,0.07,Wunderground v.1.15,2013-04-06 00:31:00,
2013-04-05 17:34:00,52.7,49.5,29.94,SE,124,2.0,7.0,89,0.07,,,0.07,Wunderground v.1.15,2013-04-06 00:34:00,
2013-04-05 17:37:00,52.7,49.8,29.94,SSE,151,2.0,7.0,90,0.06,,,0.07,Wunderground v.1.15,2013-04-06 00:37:00,
2013-04-05 17:39:00,52.7,49.8,29.94,West,271,2.0,7.0,90,0.05,,,0.07,Wunderground v.1.15,2013-04-06 00:39:00,
2013-04-05 17:44:00,52.6,49.8,29.94,SSW,212,1.0,2.0,90,0.05,,,0.08,Wunderground v.1.15,2013-04-06 00:44:00,
2013-04-05 17:45:00,52.6,50.0,29.94,SW,232,1.0,2.0,91,0.05,,,0.08,Wunderground v.1.15,2013-04-06 00:45:00,
2013-04-05 17:46:00,52.5,49.7,29.94,SE,128,1.0,2.0,90,0.05,,,0.08,Wunderground v.1.15,2013-04-06 00:46:00,
2013-04-05 17:50:00,52.5,49.7,29.94,East,93,1.0,2.0,90,0.05,,,0.08,Wunderground v.1.15,2013-04-06 00:50:00,
2013-04-05 17:51:00,52.5,49.9,29.94,East,98,1.0,2.0,91,0.05,,,0.08,Wunderground v.1.15,2013-04-06 00:51:00,
2013-04-05 17:52:00,52.5,49.9,29.94,WNW,295,1.0,2.0,91,0.05,,,0.08,Wunderground v.1.15,2013-04-06 00:52:00,
2013-04-05 17:56:00,52.5,49.9,29.93,SW,233,1.0,5.0,91,0.04,,,0.09,Wunderground v.1.15,2013-04-06 00:56:00,
2013-04-05 17:59:00,52.4,49.8,29.93,West,263,1.0,5.0,91,0.04,,,0.09,Wunderground v.1.15,2013-04-06 00:59:00,
2013-04-05 18:02:00,52.3,49.8,29.93,SE,145,1.0,1.0,91,0.04,,,0.09,Wunderground v.1.15,2013-04-06 01:02:00,
2013-04-05 18:04:00,52.4,50.1,29.93,ESE,122,1.0,1.0,92,0.04,,,0.09,Wunderground v.1.15,2013-04-06 01:04:00,
2013-04-05 18:07:00,52.4,50.1,29.93,West,276,1.0,3.0,92,0.04,,,0.09,Wunderground v.1.15,2013-04-06 01:07:00,
2013-04-05 18:09:00,52.4,49.8,29.93,SE,128,1.0,5.0,91,0.04,,,0.09,Wunderground v.1.15,2013-04-06 01:09:00,
2013-04-05 18:10:00,52.4,49.8,29.93,ESE,122,1.0,5.0,91,0.04,,,0.09,Wunderground v.1.15,2013-04-06 01:10:00,
2013-04-05 18:11:00,52.4,49.8,29.93,SE,146,1.0,5.0,91,0.04,,,0.09,Wunderground v.1.15,2013-04-06 01:11:00,
2013-04-05 18:15:00,52.5,49.9,29.93,SSE,160,2.0,3.0,91,0.00,,,0.09,Wunderground v.1.15,2013-04-06 01:15:00,
2013-04-05 18:16:00,52.5,49.9,29.93,SSE,151,2.0,4.0,91,0.00,,,0.09,Wunderground v.1.15,2013-04-06 01:16:00,
2013-04-05 18:17:00,52.5,49.9,29.93,SSE,160,2.0,4.0,91,0.00,,,0.09,Wunderground v.1.15,2013-04-06 01:17:00,
2013-04-05 18:19:00,52.5,49.9,29.93,SE,142,2.0,4.0,91,0.00,,,0.09,Wunderground v.1.15,2013-04-06 01:19:00,
2013-04-05 18:22:00,52.5,50.2,29.92,SSE,155,1.0,1.0,92,0.00,,,0.10,Wunderground v.1.15,2013-04-06 01:22:00,
2013-04-05 18:24:00,52.5,49.9,29.92,SE,145,1.0,2.0,91,0.00,,,0.10,Wunderground v.1.15,2013-04-06 01:24:00,
2013-04-05 18:25:00,52.5,49.9,29.92,SE,136,1.0,5.0,91,0.00,,,0.10,Wunderground v.1.15,2013-04-06 01:25:00,
2013-04-05 18:26:00,52.5,49.9,29.92,SSE,155,1.0,5.0,91,0.00,,,0.10,Wunderground v.1.15,2013-04-06 01:26:00,
2013-04-05 18:27:00,52.5,49.9,29.92,SE,141,1.0,5.0,91,0.00,,,0.10,Wunderground v.1.15,2013-04-06 01:27:00,
2013-04-05 18:32:00,52.5,49.9,29.92,SSE,158,2.0,5.0,91,0.00,,,0.10,Wunderground v.1.15,2013-04-06 01:32:00,
2013-04-05 18:36:00,52.4,49.6,29.92,WSW,240,1.0,2.0,90,0.00,,,0.10,Wunderground v.1.15,2013-04-06 01:36:00,
2013-04-05 18:38:00,52.4,49.8,29.92,SE,145,1.0,2.0,91,0.00,,,0.10,Wunderground v.1.15,2013-04-06 01:38:00,
2013-04-05 18:41:00,52.4,49.8,29.92,ESE,122,1.0,2.0,91,0.00,,,0.10,Wunderground v.1.15,2013-04-06 01:41:00,
2013-04-05 18:42:00,52.4,49.8,29.92,SSE,149,1.0,1.0,91,0.00,,,0.10,Wunderground v.1.15,2013-04-06 01:42:00,
2013-04-05 18:46:00,52.3,49.8,29.92,SE,129,1.0,4.0,91,0.00,,,0.10,Wunderground v.1.15,2013-04-06 01:46:00,
2013-04-05 18:49:00,52.3,49.8,29.92,East,101,1.0,5.0,91,0.00,,,0.10,Wunderground v.1.15,2013-04-06 01:49:00,
2013-04-05 18:51:00,52.3,49.8,29.92,ESE,113,1.0,5.0,91,0.00,,,0.11,Wunderground v.1.15,2013-04-06 01:51:00,
2013-04-05 18:53:00,52.3,49.8,29.92,SE,145,2.0,2.0,91,0.00,,,0.11,Wunderground v.1.15,2013-04-06 01:53:00,
2013-04-05 18:54:00,52.3,49.8,29.92,SE,129,2.0,2.0,91,0.00,,,0.11,Wunderground v.1.15,2013-04-06 01:54:00,
2013-04-05 18:55:00,52.3,49.8,29.91,SSE,160,2.0,2.0,91,0.00,,,0.11,Wunderground v.1.15,2013-04-06 01:55:00,
2013-04-05 18:56:00,52.3,49.8,29.92,SSW,205,2.0,3.0,91,0.00,,,0.11,Wunderground v.1.15,2013-04-06 01:56:00,
2013-04-05 18:59:00,52.3,49.8,29.91,SSE,149,2.0,3.0,91,0.00,,,0.11,Wunderground v.1.15,2013-04-06 01:59:00,
2013-04-05 19:00:00,52.3,49.8,29.91,WSW,240,2.0,3.0,91,0.00,,,0.11,Wunderground v.1.15,2013-04-06 02:00:00,
2013-04-05 19:01:00,52.3,49.8,29.91,SE,134,2.0,3.0,91,0.00,,,0.11,Wunderground v.1.15,2013-04-06 02:01:00,
2013-04-05 19:06:00,52.3,49.8,29.91,South,183,2.0,2.0,91,0.00,,,0.11,Wunderground v.1.15,2013-04-06 02:06:00,
2013-04-05 19:07:00,52.3,49.8,29.91,SW,233,2.0,2.0,91,0.00,,,0.11,Wunderground v.1.15,2013-04-06 02:07:00,
2013-04-05 19:09:00,52.2,49.7,29.91,SE,136,1.0,2.0,91,0.00,,,0.11,Wunderground v.1.15,2013-04-06 02:09:00,
2013-04-05 19:11:00,52.2,49.7,29.91,SSE,147,2.0,3.0,91,0.00,,,0.11,Wunderground v.1.15,2013-04-06 02:11:00,
2013-04-05 19:13:00,52.2,49.9,29.91,SE,127,1.0,1.0,92,0.00,,,0.11,Wunderground v.1.15,2013-04-06 02:13:00,
2013-04-05 19:15:00,52.2,49.9,29.91,SSE,156,1.0,2.0,92,0.00,,,0.11,Wunderground v.1.15,2013-04-06 02:15:00,
2013-04-05 19:19:00,52.1,49.6,29.91,SSE,148,2.0,5.0,91,0.00,,,0.12,Wunderground v.1.15,2013-04-06 02:19:00,
2013-04-05 19:20:00,52.1,49.6,29.91,WSW,253,2.0,5.0,91,0.00,,,0.12,Wunderground v.1.15,2013-04-06 02:20:00,
2013-04-05 19:22:00,52.1,49.6,29.90,SE,136,2.0,5.0,91,0.00,,,0.12,Wunderground v.1.15,2013-04-06 02:22:00,
2013-04-05 19:25:00,52.1,49.6,29.90,SSE,158,3.0,8.0,91,0.00,,,0.12,Wunderground v.1.15,2013-04-06 02:25:00,
2013-04-05 19:30:00,52.0,49.2,29.90,WSW,246,3.0,8.0,90,0.00,,,0.12,Wunderground v.1.15,2013-04-06 02:30:00,
2013-04-05 19:32:00,52.0,49.5,29.90,WSW,250,3.0,3.0,91,0.00,,,0.12,Wunderground v.1.15,2013-04-06 02:32:00,
2013-04-05 19:35:00,52.0,49.5,29.90,WSW,248,2.0,3.0,91,0.00,,,0.12,Wunderground v.1.15,2013-04-06 02:35:00,
2013-04-05 19:36:00,51.9,49.4,29.90,West,260,2.0,3.0,91,0.00,,,0.12,Wunderground v.1.15,2013-04-06 02:36:00,
2013-04-05 19:38:00,51.9,49.4,29.90,SE,137,1.0,3.0,91,0.00,,,0.12,Wunderground v.1.15,2013-04-06 02:38:00,
2013-04-05 19:42:00,51.8,49.3,29.90,ESE,111,1.0,3.0,91,0.00,,,0.12,Wunderground v.1.15,2013-04-06 02:42:00,
2013-04-05 19:43:00,51.8,49.3,29.90,SW,233,1.0,1.0,91,0.00,,,0.12,Wunderground v.1.15,2013-04-06 02:43:00,
2013-04-05 19:44:00,51.8,49.3,29.90,West,276,1.0,1.0,91,0.00,,,0.12,Wunderground v.1.15,2013-04-06 02:44:00,
2013-04-05 19:47:00,51.8,49.3,29.90,SE,131,1.0,5.0,91,0.00,,,0.13,Wunderground v.1.15,2013-04-06 02:47:00,
2013-04-05 19:48:00,51.8,49.3,29.90,WSW,256,2.0,5.0,91,0.00,,,0.13,Wunderground v.1.15,2013-04-06 02:48:00,
2013-04-05 19:50:00,51.8,49.5,29.90,West,266,2.0,5.0,92,0.00,,,0.13,Wunderground v.1.15,2013-04-06 02:50:00,
2013-04-05 19:53:00,51.8,49.5,29.90,WSW,240,2.0,2.0,92,0.00,,,0.13,Wunderground v.1.15,2013-04-06 02:53:00,
2013-04-05 19:54:00,51.7,49.5,29.90,SW,236,2.0,2.0,92,0.00,,,0.13,Wunderground v.1.15,2013-04-06 02:54:00,
2013-04-05 19:55:00,51.7,49.5,29.90,West,259,2.0,4.0,92,0.00,,,0.13,Wunderground v.1.15,2013-04-06 02:55:00,
2013-04-05 19:58:00,51.7,49.5,29.90,West,260,2.0,4.0,92,0.00,,,0.13,Wunderground v.1.15,2013-04-06 02:58:00,
2013-04-05 20:01:00,51.7,49.5,29.90,SSE,162,2.0,4.0,92,0.00,,,0.13,Wunderground v.1.15,2013-04-06 03:01:00,
2013-04-05 20:02:00,51.6,49.4,29.90,WSW,243,2.0,4.0,92,0.00,,,0.13,Wunderground v.1.15,2013-04-06 03:02:00,
2013-04-05 20:05:00,51.6,49.4,29.90,West,264,2.0,5.0,92,0.00,,,0.13,Wunderground v.1.15,2013-04-06 03:05:00,
2013-04-05 20:10:00,51.6,49.4,29.90,WSW,245,2.0,5.0,92,0.00,,,0.13,Wunderground v.1.15,2013-04-06 03:10:00,
2013-04-05 20:11:00,51.6,49.4,29.90,ESE,113,2.0,5.0,92,0.00,,,0.13,Wunderground v.1.15,2013-04-06 03:11:00,
2013-04-05 20:12:00,51.6,49.4,29.89,West,259,2.0,5.0,92,0.00,,,0.13,Wunderground v.1.15,2013-04-06 03:12:00,
2013-04-05 20:15:00,51.6,49.4,29.90,West,270,2.0,2.0,92,0.00,,,0.13,Wunderground v.1.15,2013-04-06 03:15:00,
2013-04-05 20:17:00,51.6,49.4,29.89,South,169,1.0,2.0,92,0.00,,,0.13,Wunderground v.1.15,2013-04-06 03:17:00,
2013-04-05 20:18:00,51.6,49.4,29.89,SSW,194,1.0,2.0,92,0.00,,,0.13,Wunderground v.1.15,2013-04-06 03:18:00,
2013-04-05 20:21:00,51.5,49.3,29.89,WSW,239,1.0,2.0,92,0.00,,,0.13,Wunderground v.1.15,2013-04-06 03:21:00,
2013-04-05 20:23:00,51.5,49.3,29.89,West,274,1.0,2.0,92,0.00,,,0.13,Wunderground v.1.15,2013-04-06 03:23:00,
2013-04-05 20:24:00,51.5,49.3,29.89,WSW,251,1.0,2.0,92,0.00,,,0.13,Wunderground v.1.15,2013-04-06 03:24:00,
2013-04-05 20:25:00,51.6,49.4,29.89,NE,55,1.0,2.0,92,0.00,,,0.13,Wunderground v.1.15,2013-04-06 03:25:00,
2013-04-05 20:27:00,51.6,49.4,29.89,SE,138,1.0,6.0,92,0.00,,,0.13,Wunderground v.1.15,2013-04-06 03:27:00,
2013-04-05 20:29:00,51.6,49.4,29.89,WSW,253,2.0,6.0,92,0.00,,,0.13,Wunderground v.1.15,2013-04-06 03:29:00,
2013-04-05 20:34:00,51.6,49.4,29.89,West,259,2.0,3.0,92,0.00,,,0.13,Wunderground v.1.15,2013-04-06 03:34:00,
2013-04-05 20:35:00,51.6,49.4,29.89,SSE,164,2.0,3.0,92,0.00,,,0.13,Wunderground v.1.15,2013-04-06 03:35:00,
2013-04-05 20:36:00,51.6,49.4,29.89,West,259,2.0,3.0,92,0.00,,,0.13,Wunderground v.1.15,2013-04-06 03:36:00,
2013-04-05 20:37:00,51.6,49.4,29.89,SW,215,2.0,3.0,92,0.00,,,0.13,Wunderground v.1.15,2013-04-06 03:37:00,
2013-04-05 20:42:00,51.6,49.4,29.89,SE,130,2.0,4.0,92,0.00,,,0.13,Wunderground v.1.15,2013-04-06 03:42:00,
2013-04-05 20:43:00,51.7,49.5,29.89,SE,137,2.0,2.0,92,0.00,,,0.13,Wunderground v.1.15,2013-04-06 03:43:00,
2013-04-05 20:44:00,51.7,49.5,29.89,WSW,248,2.0,2.0,92,0.00,,,0.13,Wunderground v.1.15,2013-04-06 03:44:00,
2013-04-05 20:45:00,51.6,49.4,29.89,West,264,2.0,2.0,92,0.00,,,0.13,Wunderground v.1.15,2013-04-06 03:45:00,
2013-04-05 20:51:00,51.6,49.4,29.89,ESE,119,1.0,4.0,92,0.00,,,0.13,Wunderground v.1.15,2013-04-06 03:51:00,
2013-04-05 20:52:00,51.6,49.4,29.89,SE,132,1.0,4.0,92,0.00,,,0.13,Wunderground v.1.15,2013-04-06 03:52:00,
2013-04-05 20:54:00,51.6,49.4,29.89,West,264,1.0,3.0,92,0.00,,,0.13,Wunderground v.1.15,2013-04-06 03:54:00,
2013-04-05 20:57:00,51.6,49.4,29.89,ESE,120,1.0,3.0,92,0.00,,,0.13,Wunderground v.1.15,2013-04-06 03:57:00,
2013-04-05 20:59:00,51.6,49.4,29.89,SE,138,1.0,3.0,92,0.00,,,0.14,Wunderground v.1.15,2013-04-06 03:59:00,
2013-04-05 21:00:00,51.6,49.4,29.89,SE,138,1.0,3.0,92,0.00,,,0.14,Wunderground v.1.15,2013-04-06 04:00:00,
2013-04-05 21:01:00,51.6,49.4,29.89,SE,145,1.0,3.0,92,0.00,,,0.14,Wunderground v.1.15,2013-04-06 04:01:00,
2013-04-05 21:05:00,51.6,49.4,29.89,SE,133,1.0,2.0,92,0.00,,,0.14,Wunderground v.1.15,2013-04-06 04:05:00,
2013-04-05 21:08:00,51.5,49.3,29.89,ESE,107,1.0,2.0,92,0.00,,,0.14,Wunderground v.1.15,2013-04-06 04:08:00,
2013-04-05 21:10:00,51.5,49.3,29.89,SSE,149,1.0,2.0,92,0.00,,,0.14,Wunderground v.1.15,2013-04-06 04:10:00,
2013-04-05 21:12:00,51.4,49.2,29.89,East,99,1.0,2.0,92,0.00,,,0.14,Wunderground v.1.15,2013-04-06 04:12:00,
2013-04-05 21:14:00,51.4,49.2,29.89,SE,131,1.0,3.0,92,0.00,,,0.14,Wunderground v.1.15,2013-04-06 04:14:00,
2013-04-05 21:15:00,51.4,49.2,29.89,SSE,149,1.0,3.0,92,0.00,,,0.14,Wunderground v.1.15,2013-04-06 04:15:00,
2013-04-05 21:18:00,51.4,49.2,29.89,SE,146,1.0,3.0,92,0.00,,,0.14,Wunderground v.1.15,2013-04-06 04:18:00,
2013-04-05 21:20:00,51.3,49.1,29.89,SSE,155,1.0,3.0,92,0.00,,,0.14,Wunderground v.1.15,2013-04-06 04:20:00,
2013-04-05 21:22:00,51.3,49.1,29.89,SE,141,1.0,1.0,92,0.00,,,0.14,Wunderground v.1.15,2013-04-06 04:22:00,
2013-04-05 21:27:00,51.3,49.1,29.89,SE,131,1.0,4.0,92,0.00,,,0.15,Wunderground v.1.15,2013-04-06 04:27:00,
2013-04-05 21:30:00,51.3,49.1,29.89,SE,142,1.0,4.0,92,0.00,,,0.15,Wunderground v.1.15,2013-04-06 04:30:00,
2013-04-05 21:32:00,51.3,49.1,29.89,SE,141,1.0,1.0,92,0.00,,,0.15,Wunderground v.1.15,2013-04-06 04:32:00,
2013-04-05 21:34:00,51.3,49.1,29.89,SE,124,1.0,1.0,92,0.00,,,0.15,Wunderground v.1.15,2013-04-06 04:34:00,
2013-04-05 21:36:00,51.2,49.0,29.89,ESE,119,1.0,1.0,92,0.00,,,0.15,Wunderground v.1.15,2013-04-06 04:36:00,
2013-04-05 21:39:00,51.1,48.9,29.89,ESE,121,1.0,2.0,92,0.00,,,0.15,Wunderground v.1.15,2013-04-06 04:39:00,
2013-04-05 21:40:00,51.1,49.1,29.89,ESE,120,1.0,2.0,93,0.00,,,0.15,Wunderground v.1.15,2013-04-06 04:40:00,
2013-04-05 21:45:00,50.9,48.9,29.88,ESE,113,1.0,2.0,93,0.00,,,0.16,Wunderground v.1.15,2013-04-06 04:45:00,
2013-04-05 21:47:00,50.9,48.9,29.88,ESE,119,1.0,2.0,93,0.00,,,0.16,Wunderground v.1.15,2013-04-06 04:47:00,
2013-04-05 21:50:00,50.8,48.8,29.88,ESE,108,1.0,2.0,93,0.08,,,0.17,Wunderground v.1.15,2013-04-06 04:50:00,
2013-04-05 21:56:00,50.7,48.7,29.88,SE,128,1.0,1.0,93,0.12,,,0.18,Wunderground v.1.15,2013-04-06 04:56:00,
2013-04-05 21:57:00,50.7,48.7,29.88,ESE,110,1.0,1.0,93,0.12,,,0.18,Wunderground v.1.15,2013-04-06 04:57:00,
2013-04-05 22:02:00,50.6,48.7,29.87,ESE,119,1.0,2.0,93,0.14,,,0.19,Wunderground v.1.15,2013-04-06 05:02:00,
2013-04-05 22:03:00,50.6,48.7,29.88,SE,127,1.0,1.0,93,0.13,,,0.20,Wunderground v.1.15,2013-04-06 05:03:00,
2013-04-05 22:05:00,50.6,48.7,29.87,SE,129,1.0,1.0,93,0.13,,,0.20,Wunderground v.1.15,2013-04-06 05:05:00,
2013-04-05 22:06:00,50.6,48.7,29.87,SE,130,1.0,1.0,93,0.13,,,0.20,Wunderground v.1.15,2013-04-06 05:06:00,
2013-04-05 22:10:00,50.6,48.7,29.87,ESE,117,2.0,3.0,93,0.08,,,0.20,Wunderground v.1.15,2013-04-06 05:10:00,
2013-04-05 22:13:00,50.6,48.7,29.87,NE,53,2.0,2.0,93,0.06,,,0.21,Wunderground v.1.15,2013-04-06 05:13:00,
2013-04-05 22:15:00,50.6,48.4,29.86,East,86,2.0,2.0,92,0.06,,,0.21,Wunderground v.1.15,2013-04-06 05:15:00,
2013-04-05 22:18:00,50.6,48.4,29.86,SE,127,2.0,2.0,92,0.06,,,0.21,Wunderground v.1.15,2013-04-06 05:18:00,
2013-04-05 22:19:00,50.6,48.4,29.86,ESE,122,2.0,3.0,92,0.06,,,0.21,Wunderground v.1.15,2013-04-06 05:19:00,
2013-04-05 22:20:00,50.6,48.4,29.86,ESE,113,2.0,3.0,92,0.06,,,0.21,Wunderground v.1.15,2013-04-06 05:20:00,
2013-04-05 22:21:00,50.6,48.4,29.86,ESE,120,2.0,3.0,92,0.06,,,0.21,Wunderground v.1.15,2013-04-06 05:21:00,
2013-04-05 22:25:00,50.6,48.4,29.86,ENE,77,2.0,2.0,92,0.05,,,0.21,Wunderground v.1.15,2013-04-06 05:25:00,
2013-04-05 22:29:00,50.5,48.3,29.85,SE,137,1.0,2.0,92,0.04,,,0.21,Wunderground v.1.15,2013-04-06 05:29:00,
2013-04-05 22:30:00,50.5,48.3,29.86,SE,134,1.0,2.0,92,0.00,,,0.21,Wunderground v.1.15,2013-04-06 05:30:00,
2013-04-05 22:34:00,50.4,48.2,29.85,SE,133,1.0,2.0,92,0.00,,,0.21,Wunderground v.1.15,2013-04-06 05:34:00,
2013-04-05 22:35:00,50.5,48.3,29.85,ESE,115,1.0,2.0,92,0.00,,,0.21,Wunderground v.1.15,2013-04-06 05:35:00,
2013-04-05 22:36:00,50.4,48.2,29.85,SE,133,1.0,2.0,92,0.00,,,0.21,Wunderground v.1.15,2013-04-06 05:36:00,
2013-04-05 22:38:00,50.4,48.2,29.85,ENE,65,1.0,2.0,92,0.00,,,0.21,Wunderground v.1.15,2013-04-06 05:38:00,
2013-04-05 22:43:00,50.3,48.1,29.85,ESE,117,1.0,2.0,92,0.00,,,0.21,Wunderground v.1.15,2013-04-06 05:43:00,
2013-04-05 22:44:00,50.3,48.1,29.84,NNE,32,1.0,2.0,92,0.00,,,0.21,Wunderground v.1.15,2013-04-06 05:44:00,
2013-04-05 22:49:00,50.3,48.1,29.84,SE,132,1.0,2.0,92,0.00,,,0.21,Wunderground v.1.15,2013-04-06 05:49:00,
2013-04-05 22:50:00,50.3,48.1,29.84,ESE,119,1.0,2.0,92,0.00,,,0.21,Wunderground v.1.15,2013-04-06 05:50:00,
2013-04-05 22:54:00,50.2,48.0,29.84,ESE,106,1.0,1.0,92,0.00,,,0.21,Wunderground v.1.15,2013-04-06 05:54:00,
2013-04-05 22:56:00,50.2,48.0,29.84,SE,139,1.0,2.0,92,0.00,,,0.21,Wunderground v.1.15,2013-04-06 05:56:00,
2013-04-05 22:57:00,50.2,48.0,29.84,SE,145,1.0,2.0,92,0.00,,,0.21,Wunderground v.1.15,2013-04-06 05:57:00,
2013-04-05 22:58:00,50.3,48.1,29.84,SE,136,1.0,2.0,92,0.00,,,0.21,Wunderground v.1.15,2013-04-06 05:58:00,
2013-04-05 23:00:00,50.3,48.1,29.84,ESE,107,1.0,2.0,92,0.00,,,0.21,Wunderground v.1.15,2013-04-06 06:00:00,
2013-04-05 23:03:00,50.2,48.0,29.84,ESE,111,1.0,1.0,92,0.00,,,0.21,Wunderground v.1.15,2013-04-06 06:03:00,
2013-04-05 23:05:00,50.2,47.7,29.84,SE,145,1.0,3.0,91,0.00,,,0.21,Wunderground v.1.15,2013-04-06 06:05:00,
2013-04-05 23:06:00,50.2,47.7,29.84,ESE,117,1.0,3.0,91,0.00,,,0.21,Wunderground v.1.15,2013-04-06 06:06:00,
2013-04-05 23:10:00,50.3,47.8,29.84,ESE,122,1.0,3.0,91,0.00,,,0.21,Wunderground v.1.15,2013-04-06 06:10:00,
2013-04-05 23:12:00,50.3,47.8,29.84,SE,134,1.0,3.0,91,0.00,,,0.21,Wunderground v.1.15,2013-04-06 06:12:00,
2013-04-05 23:15:00,50.3,47.5,29.84,ESE,119,1.0,2.0,90,0.00,,,0.22,Wunderground v.1.15,2013-04-06 06:15:00,
2013-04-05 23:19:00,50.3,47.5,29.84,ESE,107,1.0,2.0,90,0.00,,,0.22,Wunderground v.1.15,2013-04-06 06:19:00,
2013-04-05 23:20:00,50.3,47.5,29.84,NE,54,1.0,2.0,90,0.00,,,0.22,Wunderground v.1.15,2013-04-06 06:20:00,
2013-04-05 23:21:00,50.3,47.5,29.84,SE,126,1.0,2.0,90,0.00,,,0.22,Wunderground v.1.15,2013-04-06 06:21:00,
2013-04-05 23:25:00,50.3,47.8,29.84,ESE,113,1.0,2.0,91,0.00,,,0.22,Wunderground v.1.15,2013-04-06 06:25:00,
2013-04-05 23:27:00,50.3,47.8,29.84,SE,127,1.0,2.0,91,0.00,,,0.22,Wunderground v.1.15,2013-04-06 06:27:00,
2013-04-05 23:28:00,50.3,47.8,29.84,ESE,119,1.0,2.0,91,0.00,,,0.22,Wunderground v.1.15,2013-04-06 06:28:00,
2013-04-05 23:31:00,50.2,47.7,29.84,SE,127,1.0,2.0,91,0.00,,,0.22,Wunderground v.1.15,2013-04-06 06:31:00,
2013-04-05 23:35:00,50.2,47.7,29.83,ESE,122,1.0,1.0,91,0.00,,,0.22,Wunderground v.1.15,2013-04-06 06:35:00,
2013-04-05 23:38:00,50.1,47.6,29.83,ENE,68,1.0,1.0,91,0.00,,,0.22,Wunderground v.1.15,2013-04-06 06:38:00,
2013-04-05 23:39:00,50.2,47.7,29.83,ESE,115,1.0,1.0,91,0.00,,,0.22,Wunderground v.1.15,2013-04-06 06:39:00,
2013-04-05 23:40:00,50.2,47.7,29.83,ESE,103,1.0,2.0,91,0.00,,,0.22,Wunderground v.1.15,2013-04-06 06:40:00,
2013-04-05 23:44:00,50.1,47.6,29.83,SSE,151,0.0,1.0,91,0.00,,,0.22,Wunderground v.1.15,2013-04-06 06:44:00,
2013-04-05 23:45:00,50.1,47.6,29.83,SE,138,0.0,1.0,91,0.00,,,0.22,Wunderground v.1.15,2013-04-06 06:45:00,
2013-04-05 23:46:00,50.1,47.6,29.83,ESE,107,0.0,1.0,91,0.00,,,0.22,Wunderground v.1.15,2013-04-06 06:46:00,
2013-04-05 23:48:00,50.1,47.6,29.83,SE,137,0.0,1.0,91,0.00,,,0.22,Wunderground v.1.15,2013-04-06 06:48:00,
2013-04-05 23:51:00,50.1,47.6,29.83,SE,138,0.0,1.0,91,0.00,,,0.22,Wunderground v.1.15,2013-04-06 06:51:00,
2013-04-05 23:52:00,50.1,47.6,29.83,SE,141,0.0,1.0,91,0.00,,,0.22,Wunderground v.1.15,2013-04-06 06:52:00,
2013-04-05 23:55:00,50.2,47.7,29.84,ESE,121,1.0,1.0,91,0.00,,,0.22,Wunderground v.1.15,2013-04-06 06:55:00,
2013-04-05 23:58:00,50.3,47.5,29.83,SE,134,1.0,3.0,90,0.00,,,0.22,Wunderground v.1.15,2013-04-06 06:58:00,